                ,  0.201,  0.301,  0.401,  0.501,  0.601,  0.701,  0.801,  0.901,  1.001,  1.101,  1.201,  1.301,  1.401,  1.501,  1.601,  1.701,  1.801,  1.901,  2.001,  2.101,  2.201,  2.301,  2.401,  2.501,  2.601,  2.701,  2.801,  2.901,  3.001,  3.101,  3.201,  3.301,  3.401,  3.501,  3.601,  3.701,  3.801,  3.901,  4.001,  4.101,  4.201,  4.301,  4.401,  4.501,  4.601,  4.701,  4.801,  4.901,  5.001,  5.101,  5.201,  5.301,  5.401,  5.501,  5.601,  5.701,  5.801,  5.901,  6.001,  6.101,  6.201,  6.301,  6.401,  6.501,  6.601,  6.701,  6.801,  6.901,  7.001,  7.101,  7.201,  7.301,  7.401,  7.501,  7.601,  7.701,  7.801,  7.901,  8.001,  8.101,  8.201,  8.301,  8.401,  8.501,  8.601,  8.701,  8.801,  8.901,  9.001,  9.101,  9.201,  9.301,  9.401,  9.501,  9.601,  9.701,  9.801,  9.901
2010/10/28 00:00,   -5.0,   -5.0,   -5.2,   -5.2,   -5.3,   -5.3,   -5.3,   -5.4,   -5.5,   -5.5,   -5.5,   -5.6,   -5.7,   -5.7,   -5.6,   -5.7,   -5.6,   -5.8,   -5.7,   -5.5,   -5.5,   -5.6,   -5.6,   -5.7,   -5.7,   -5.7,   -6.0,   -5.9,   -5.8,   -5.9,   -5.7,   -5.7,   -5.7,   -5.7,   -5.7,   -5.8,   -5.6,   -5.7,   -5.4,   -5.4,   -5.2,   -5.2,   -4.1,   -3.0,   -2.5,   -2.2,   -1.9,   -1.9,   -1.8,   -1.7,   -1.5,   -1.3,   -1.2,   -1.3,   -1.3,   -1.4,   -1.2,   -1.2,   -1.2,   -1.3,   -1.3,   -1.3,   -1.4,   -1.4,   -1.4,   -1.3,   -1.3,   -1.2,   -1.3,   -1.3,   -1.3,   -1.3,   -1.3,   -1.2,   -1.2,   -1.2,   -1.2,   -1.1,   -1.1,   -1.1,   -1.1,   -1.1,   -1.1,   -1.1,   -1.1,   -1.0,   -0.9,   -0.9,   -0.9,   -0.9,   -1.0,   -1.0,   -1.0,   -1.0,   -1.0,   -0.9,   -1.0,   -0.9
2010/10/28 00:10,   -5.0,   -5.0,   -5.0,   -5.0,   -5.1,   -5.2,   -5.2,   -5.2,   -5.1,   -5.2,   -5.2,   -5.2,   -5.3,   -5.2,   -5.2,   -5.3,   -5.2,   -5.3,   -5.3,   -5.3,   -5.4,   -5.4,   -5.4,   -5.4,   -5.4,   -5.4,   -5.3,   -5.2,   -5.3,   -5.2,   -5.2,   -5.2,   -5.3,   -5.2,   -5.3,   -5.2,   -5.5,   -5.5,   -5.1,   -5.4,   -5.1,  999.0,  999.0,  999.0,   -2.3,   -2.0,   -1.8,   -1.7,   -1.6,   -1.6,   -1.5,   -1.4,   -1.4,   -1.3,   -1.3,   -1.3,   -1.3,   -1.3,   -1.3,   -1.2,   -1.2,   -1.2,   -1.2,   -1.1,   -1.1,   -1.1,   -1.1,   -1.1,   -1.2,   -1.2,   -1.2,   -1.2,   -1.2,   -1.2,   -1.2,   -1.2,   -1.2,   -1.2,   -1.1,   -1.1,   -1.1,   -1.1,   -1.0,   -1.0,   -1.0,   -1.0,   -1.0,   -1.0,   -1.0,   -0.9,   -0.8,   -0.8,   -0.8,   -0.7,   -0.7,   -0.6,   -0.7,   -0.6
2010/10/28 00:20,   -5.5,   -5.1,   -5.3,   -6.8,   -5.9,   -5.7,   -5.6,   -5.8,   -5.8,   -5.6,   -5.9,   -6.2,   -6.3,   -6.2,   -6.1,   -6.3,   -6.4,   -6.2,   -6.4,   -6.4,   -6.6,   -6.5,   -6.6,   -6.5,   -6.6,   -6.6,   -6.7,   -6.7,   -6.8,   -6.9,   -7.0,   -7.0,   -7.1,   -7.1,   -7.0,   -7.3,   -7.4,   -7.3,  999.0,  999.0,  999.0,   -6.3,   -4.9,  999.0,  999.0,   -1.9,   -1.8,   -1.6,   -1.5,   -1.4,   -1.3,   -1.3,   -1.3,   -1.2,   -1.2,   -1.1,   -1.2,   -1.1,   -1.1,   -1.1,   -1.0,   -1.1,   -1.1,   -1.1,   -1.1,   -1.1,   -1.1,   -1.0,   -1.1,   -1.1,   -1.1,   -1.1,   -1.1,   -1.1,   -1.2,   -1.2,   -1.2,   -1.2,   -1.2,   -1.2,   -1.2,   -1.2,   -1.1,   -1.1,   -1.0,   -1.0,   -1.0,   -1.0,   -1.0,   -1.0,   -1.1,   -1.0,   -1.0,   -1.0,   -0.9,   -0.8,   -0.8,   -0.8
2010/10/28 00:30,   -5.8,   -6.0,   -5.9,   -6.0,   -6.0,   -6.0,   -6.0,   -6.1,   -6.1,   -6.1,   -6.2,   -6.2,   -6.2,   -6.1,   -6.2,   -6.2,   -6.1,   -6.1,   -6.1,   -6.2,   -6.2,   -6.3,   -6.3,   -6.4,   -6.5,   -6.5,   -6.6,   -6.6,   -6.8,   -6.8,   -6.9,   -6.9,   -7.1,   -7.0,   -7.0,   -7.1,   -7.1,   -7.0,   -7.1,  999.0,  999.0,   -6.3,   -4.9,  999.0,  999.0,  999.0,   -1.7,   -1.5,   -1.4,   -1.4,   -1.4,   -1.4,   -1.3,   -1.2,   -1.2,   -1.1,   -1.1,   -1.1,   -1.1,   -1.1,   -1.1,   -1.1,   -1.1,   -1.0,   -1.0,   -1.0,   -0.9,   -0.9,   -0.8,   -0.8,   -0.8,   -0.7,   -0.7,   -0.8,   -0.9,   -0.9,   -0.9,   -0.9,   -1.0,   -1.0,   -1.0,   -1.0,   -0.9,   -1.0,   -1.0,   -1.0,   -0.9,   -0.9,   -0.9,   -0.9,   -0.9,   -0.9,   -0.8,   -0.7,   -0.7,   -0.6,   -0.7,   -0.7
2010/10/28 00:40,   -6.0,   -6.0,   -6.0,   -6.0,   -6.2,   -6.2,   -6.3,   -6.3,   -6.2,   -6.2,   -6.2,   -6.0,   -6.0,   -5.9,   -5.9,   -5.9,   -5.9,   -5.9,   -5.8,   -5.9,   -5.8,   -6.1,   -5.9,   -6.0,   -6.0,   -6.3,   -6.1,   -5.9,   -6.2,   -6.3,   -6.2,   -6.1,   -6.1,   -6.0,   -6.1,   -6.0,   -5.9,   -6.0,   -6.1,   -6.0,   -6.1,   -5.7,   -4.0,   -3.0,   -2.4,   -2.0,   -1.7,   -1.6,   -1.6,   -1.5,   -1.5,   -1.4,   -1.3,   -1.2,   -1.2,   -1.2,   -1.2,   -1.1,   -1.1,   -1.1,   -1.0,   -1.0,   -1.1,   -1.1,   -1.1,   -1.1,   -1.0,   -0.9,   -0.9,   -0.8,   -0.8,   -0.7,   -0.7,   -0.7,   -0.8,   -0.9,   -0.9,   -0.9,   -0.9,   -0.9,   -0.9,   -0.9,   -1.0,   -0.9,   -0.9,   -0.8,   -0.9,   -0.9,   -0.8,   -0.8,   -0.7,   -0.7,   -0.7,   -0.7,   -0.6,   -0.6,   -0.7,   -0.7
2010/10/28 00:50,   -5.6,   -5.6,   -5.6,   -5.6,   -5.7,   -5.6,   -5.6,   -5.6,   -5.6,   -5.7,   -5.7,   -5.7,   -5.8,   -5.8,   -5.8,   -5.8,   -5.9,   -6.0,   -6.1,   -6.1,   -6.1,   -6.1,   -6.2,   -6.2,   -6.3,   -6.2,   -6.1,   -6.2,   -6.3,   -6.4,   -6.4,   -6.4,   -6.2,   -6.3,   -6.4,   -6.3,   -6.3,   -5.9,   -6.1,   -6.0,   -6.0,   -5.4,   -3.9,  999.0,   -2.4,   -2.2,   -1.8,   -1.6,   -1.6,   -1.6,   -1.6,   -1.6,   -1.4,   -1.3,   -1.3,   -1.3,   -1.2,   -1.2,   -1.2,   -1.2,   -1.2,   -1.1,   -1.1,   -1.1,   -1.0,   -1.1,   -1.0,   -0.9,   -0.9,   -0.9,   -0.8,   -0.8,   -0.8,   -0.8,   -0.9,   -0.9,   -0.9,   -0.9,   -0.9,   -0.9,   -0.8,   -0.8,   -0.8,   -0.8,   -0.8,   -0.8,   -0.8,   -0.8,   -0.7,   -0.7,   -0.7,   -0.7,  999.0,  999.0,  999.0,  999.0,  999.0,  999.0
2010/10/28 01:00,   -5.1,   -5.1,   -5.1,   -5.1,   -5.2,   -5.0,   -5.2,   -5.3,   -5.3,   -5.4,   -5.4,   -5.6,   -5.5,   -5.5,   -5.5,   -5.6,   -5.6,   -5.7,   -5.6,   -5.7,   -5.6,   -5.6,   -5.5,   -5.6,   -5.5,   -5.4,   -5.5,   -5.4,   -5.5,   -5.4,   -5.5,   -5.6,   -5.6,   -5.6,   -5.6,   -5.6,   -5.8,   -5.9,   -5.8,   -5.9,   -6.1,   -5.4,   -4.2,  999.0,   -2.6,   -2.3,   -2.1,   -2.1,   -1.9,   -1.9,   -1.7,   -1.6,   -1.5,   -1.4,   -1.3,   -1.2,   -1.1,   -1.2,   -1.2,   -1.2,   -1.2,   -1.2,   -1.2,   -1.2,   -1.1,   -1.1,   -1.0,   -1.0,   -0.9,   -0.9,   -0.8,   -0.8,   -0.8,   -0.8,   -0.9,   -1.0,   -1.0,   -1.0,   -0.9,   -0.9,   -0.8,   -0.8,   -0.8,   -0.7,  999.0,   -0.7,   -0.7,   -0.7,   -0.6,   -0.6,   -0.6,  999.0,  999.0,  999.0,  999.0,  999.0,  999.0,  999.0
2010/10/28 01:10,   -5.1,   -5.1,   -5.1,   -5.2,   -5.2,   -5.4,   -5.3,   -5.1,   -5.4,   -5.4,   -5.2,   -5.3,   -5.3,   -5.3,   -5.3,   -5.2,   -5.3,   -5.3,   -5.2,   -5.5,   -5.5,   -5.5,   -5.4,   -5.4,   -5.5,   -5.4,   -5.4,   -5.3,   -5.3,   -5.4,   -5.3,   -5.3,   -5.3,   -5.2,   -5.2,   -5.4,   -5.5,   -5.5,   -5.6,   -5.6,   -5.5,   -5.9,   -4.6,   -2.9,   -2.3,   -1.8,   -1.7,   -1.6,   -1.5,   -1.3,   -1.1,   -1.0,   -0.9,   -0.9,   -0.9,   -0.9,   -0.9,   -0.9,   -0.9,   -0.9,   -1.0,   -1.0,   -1.1,   -1.0,   -1.0,   -1.0,   -1.0,   -0.9,   -0.9,   -0.8,   -0.8,   -0.8,   -0.8,   -0.8,   -0.8,   -0.9,   -0.9,   -0.9,   -0.9,   -0.8,   -0.7,   -0.7,   -0.6,   -0.6,   -0.6,  999.0,  999.0,  999.0,  999.0,  999.0,  999.0,  999.0,  999.0,  999.0,  999.0,  999.0,  999.0,  999.0
2010/10/28 01:20,   -5.2,   -5.2,   -5.2,   -5.3,   -5.3,   -5.3,   -5.3,   -5.2,   -5.2,   -5.2,   -5.0,   -5.2,   -5.2,   -5.2,   -5.2,   -5.0,   -5.2,   -5.1,   -5.1,   -5.3,   -5.3,   -5.3,   -5.3,   -5.2,   -5.1,   -5.1,   -5.2,   -5.2,   -5.2,   -5.2,   -5.1,   -5.0,   -5.2,   -5.2,   -5.4,   -5.3,   -5.6,   -5.7,   -5.9,   -6.0,  999.0,   -5.6,  999.0,   -3.0,   -2.2,   -2.1,   -2.0,   -1.8,   -1.6,   -1.4,   -1.3,   -1.2,   -1.2,   -1.2,   -1.2,   -1.2,   -1.2,   -1.2,   -1.1,   -1.1,   -1.1,   -1.1,   -1.0,   -1.0,   -1.0,   -1.0,   -1.0,   -0.9,   -0.9,   -0.8,   -0.8,   -0.8,   -0.8,   -0.8,   -0.9,   -1.0,   -1.0,   -1.0,   -0.9,   -0.8,   -0.7,   -0.7,   -0.7,   -0.7,   -0.7,   -0.7,   -0.7,  999.0,  999.0,  999.0,  999.0,  999.0,  999.0,  999.0,  999.0,  999.0,  999.0,  999.0
2010/10/28 01:30,   -5.0,   -5.0,   -5.1,   -5.1,   -5.1,   -5.2,   -5.2,   -5.2,   -5.2,   -5.3,   -5.3,   -5.6,   -5.5,   -5.2,   -5.2,   -5.2,   -5.1,   -5.2,   -5.2,   -5.2,   -5.2,   -5.3,   -5.3,   -5.2,   -5.1,   -5.1,   -5.0,   -5.0,   -4.9,   -4.9,   -4.9,   -4.9,   -5.1,   -5.1,   -5.2,   -5.3,   -5.4,   -5.6,   -5.5,   -5.4,   -5.7,   -5.0,   -3.7,   -3.4,   -2.8,   -2.2,   -2.0,   -1.8,   -1.7,   -1.7,   -1.6,   -1.5,   -1.4,   -1.3,   -1.3,   -1.2,   -1.2,   -1.2,   -1.2,   -1.2,   -1.2,   -1.1,   -1.0,   -1.0,   -1.0,   -1.0,   -0.9,   -0.9,   -0.9,   -0.9,   -0.8,   -0.8,   -0.8,   -0.8,   -0.8,   -0.8,   -0.9,   -0.9,   -0.9,   -0.8,   -0.7,   -0.7,   -0.7,   -0.8,   -0.7,   -0.7,   -0.7,   -0.7,  999.0,  999.0,  999.0,  999.0,  999.0,  999.0,  999.0,  999.0,  999.0,  999.0
2010/10/28 01:40,   -4.9,   -4.9,   -5.0,   -5.0,   -5.1,   -5.0,   -4.9,   -4.9,   -4.8,   -4.8,   -4.6,   -4.6,   -4.5,   -4.6,   -4.6,   -4.7,   -4.9,   -4.9,   -5.2,   -5.1,   -5.1,   -5.4,   -5.4,   -5.7,   -5.6,   -5.5,   -5.5,   -5.6,   -5.4,   -5.4,   -5.6,   -5.4,   -5.5,   -5.5,   -5.5,   -5.7,   -5.8,   -5.8,   -5.7,   -5.8,   -5.8,   -5.0,   -3.9,   -2.8,  999.0,   -1.9,   -1.9,   -1.7,   -1.5,   -1.4,   -1.3,   -1.3,   -1.3,   -1.3,   -1.3,   -1.3,   -1.4,   -1.4,   -1.4,   -1.3,   -1.3,   -1.2,   -1.2,   -1.1,   -1.1,   -1.0,   -1.0,   -0.9,   -0.8,   -0.8,   -0.8,   -0.8,   -0.8,   -0.8,   -0.8,   -0.8,   -0.8,   -0.8,   -0.8,   -0.8,   -0.7,   -0.7,   -0.7,   -0.7,   -0.7,   -0.7,   -0.7,   -0.7,   -0.7,   -0.6,  999.0,  999.0,  999.0,  999.0,  999.0,  999.0,  999.0,  999.0
2010/10/28 01:50,   -4.6,   -4.4,   -4.5,   -4.4,   -4.4,   -4.5,   -4.5,   -4.6,   -4.8,   -4.7,   -4.7,   -4.7,   -4.7,   -4.6,   -5.0,   -5.1,   -5.4,   -5.7,   -5.5,   -5.7,   -5.8,   -5.9,   -5.7,   -6.0,   -5.9,   -6.0,   -6.0,   -5.8,   -5.6,   -5.9,   -5.7,   -5.5,   -5.5,   -5.9,   -5.8,   -5.8,   -5.9,   -5.9,   -5.9,   -6.0,   -6.1,   -5.4,  999.0,  999.0,  999.0,   -2.0,   -1.8,   -1.6,   -1.6,   -1.5,   -1.5,   -1.4,   -1.4,   -1.4,   -1.4,   -1.3,   -1.3,   -1.4,   -1.3,   -1.3,   -1.2,   -1.1,   -1.1,   -1.0,   -1.0,   -1.0,   -0.9,   -0.9,   -0.8,   -0.8,   -0.8,   -0.8,   -0.8,   -0.8,   -0.8,   -0.8,   -0.8,   -0.8,   -0.8,   -0.8,   -0.7,   -0.7,   -0.6,   -0.6,   -0.7,   -0.6,   -0.5,   -0.5,  999.0,  999.0,  999.0,  999.0,  999.0,  999.0,  999.0,  999.0,  999.0,  999.0
2010/10/28 02:00,   -4.1,   -4.0,   -4.1,   -4.3,   -4.4,   -4.6,   -4.6,   -4.6,   -4.5,   -4.6,   -4.5,   -4.8,   -4.7,   -4.8,   -5.3,   -5.3,   -5.4,   -5.4,   -5.4,   -5.5,   -5.3,   -5.1,   -5.0,   -4.9,   -5.0,   -4.9,   -5.1,   -5.2,   -5.1,   -5.1,   -5.1,   -5.1,   -5.1,   -5.0,   -5.0,   -4.9,   -4.9,   -5.1,   -5.2,   -5.1,   -5.2,   -5.4,   -4.3,  999.0,  999.0,   -1.9,   -1.7,   -1.5,   -1.4,   -1.5,   -1.5,   -1.4,   -1.4,   -1.4,   -1.4,   -1.4,   -1.4,   -1.4,   -1.4,   -1.4,   -1.3,   -1.3,   -1.2,   -1.2,   -1.2,   -1.1,   -0.9,   -0.8,   -0.8,   -0.7,   -0.7,   -0.8,   -0.8,   -0.8,   -0.8,   -0.8,   -0.8,   -0.7,   -0.7,   -0.6,   -0.6,   -0.4,  999.0,   -0.6,  999.0,   -0.6,   -0.3,   -0.5,  999.0,  999.0,  999.0,  999.0,  999.0,  999.0,  999.0,  999.0,  999.0,  999.0
2010/10/28 02:10,   -4.3,   -4.3,   -4.4,   -4.4,   -4.5,   -4.6,   -4.8,   -4.9,   -4.9,   -4.9,   -5.1,   -5.1,   -5.1,   -5.2,   -4.9,   -4.9,   -5.0,   -5.0,   -5.0,   -5.1,   -5.1,   -5.1,   -5.2,   -5.3,   -5.2,   -5.2,   -5.3,   -5.3,   -5.1,   -5.1,   -5.1,   -5.1,   -5.2,   -5.2,   -5.2,   -5.2,   -5.2,   -5.5,   -5.2,   -5.4,   -4.8,  999.0,  999.0,  999.0,  999.0,  999.0,   -1.5,   -1.5,   -1.5,   -1.4,   -1.3,   -1.3,   -1.3,   -1.2,   -1.2,   -1.4,   -1.4,   -1.3,   -1.4,   -1.4,   -1.4,   -1.3,   -1.3,   -1.3,   -1.4,   -1.3,   -1.3,   -1.2,   -1.0,   -0.9,   -0.9,   -0.9,   -0.9,   -0.8,   -0.8,   -0.8,   -0.8,   -0.8,   -0.8,  999.0,   -0.7,   -0.6,  999.0,  999.0,  999.0,  999.0,  999.0,  999.0,  999.0,  999.0,  999.0,  999.0,  999.0,  999.0,  999.0,  999.0,  999.0,  999.0
2010/10/28 02:20,   -4.6,   -4.6,   -4.6,   -4.7,   -4.7,   -4.7,   -4.6,   -4.6,   -4.5,   -4.4,   -4.2,   -4.1,   -3.8,   -3.9,   -4.3,   -4.5,   -4.5,   -4.7,   -4.8,   -4.8,   -4.8,   -4.7,   -4.8,   -4.5,   -4.6,   -4.7,   -4.5,   -4.7,   -4.7,   -4.7,   -4.6,   -4.6,   -4.7,   -4.6,   -4.6,   -4.5,   -4.5,   -4.6,   -4.7,   -4.8,   -4.8,   -5.0,   -3.8,  999.0,  999.0,   -1.6,   -1.6,   -1.5,   -1.5,   -1.5,   -1.5,   -1.5,   -1.4,   -1.4,   -1.3,   -1.3,   -1.3,   -1.3,   -1.3,   -1.2,   -1.2,   -1.2,   -1.1,   -1.0,   -0.9,   -0.9,   -0.8,   -0.8,   -0.8,   -0.8,   -0.8,   -0.8,   -0.8,   -0.8,   -0.7,   -0.7,   -0.7,   -0.6,   -0.6,   -0.6,   -0.6,   -0.7,  999.0,   -0.6,  999.0,  999.0,  999.0,  999.0,  999.0,  999.0,  999.0,  999.0,  999.0,  999.0,  999.0,  999.0,  999.0,  999.0
2010/10/28 02:30,   -3.6,   -3.6,   -3.6,   -3.7,   -3.7,   -3.7,   -3.6,   -3.8,   -3.8,   -3.5,   -3.6,   -3.8,   -3.8,   -4.3,   -4.2,   -4.4,   -4.4,   -4.5,   -4.7,   -4.7,   -4.7,   -4.9,   -4.8,   -4.7,   -4.8,   -4.8,   -4.8,   -4.6,   -4.6,   -4.6,   -4.5,   -4.4,   -4.5,   -4.5,   -4.9,   -4.7,   -4.9,   -4.9,   -4.7,   -4.7,   -4.9,   -5.0,   -4.1,  999.0,  999.0,  999.0,   -1.6,   -1.6,   -1.5,   -1.5,   -1.6,   -1.5,   -1.5,   -1.5,   -1.6,   -1.5,   -1.5,   -1.5,   -1.4,   -1.3,   -1.3,   -1.2,   -1.1,   -1.0,   -0.9,   -0.9,   -0.8,   -0.8,   -0.7,   -0.7,   -0.7,   -0.6,   -0.6,   -0.7,   -0.7,   -0.6,   -0.7,   -0.6,   -0.6,   -0.6,   -0.6,   -0.6,   -0.6,   -0.6,   -0.6,   -0.6,   -0.6,   -0.6,   -0.5,  999.0,  999.0,  999.0,  999.0,  999.0,  999.0,  999.0,  999.0,  999.0
2010/10/28 02:40,   -3.7,   -3.8,   -4.2,   -4.1,   -4.0,   -4.0,   -4.3,   -4.3,   -4.4,   -4.7,   -4.3,   -4.6,   -4.4,   -4.4,   -4.2,   -4.5,   -4.1,   -3.9,   -3.7,   -4.1,   -4.2,   -4.1,   -3.8,   -3.7,   -3.6,   -4.1,   -3.8,   -3.9,   -3.7,   -3.7,   -3.7,   -3.5,   -3.7,   -3.5,   -3.7,   -3.6,   -3.6,   -3.7,   -3.7,   -3.8,   -3.9,   -3.9,   -4.0,  999.0,  999.0,   -1.8,   -1.8,   -1.8,   -1.8,   -1.7,   -1.7,   -1.6,   -1.5,   -1.7,   -1.6,   -1.5,   -1.4,   -1.3,   -1.3,   -1.3,   -1.3,   -1.3,   -1.2,   -1.2,   -1.0,   -0.9,   -0.8,   -0.7,   -0.7,   -0.7,   -0.8,   -0.9,   -0.9,   -1.1,   -1.1,   -1.2,   -1.0,   -1.2,   -1.0,   -0.8,   -0.8,   -0.8,   -0.8,   -0.7,   -0.7,   -0.7,   -0.6,  999.0,  999.0,  999.0,  999.0,  999.0,  999.0,  999.0,  999.0,  999.0,  999.0,  999.0
2010/10/28 02:50,  999.0,   -5.6,   -5.4,   -5.3,   -5.1,   -4.9,   -4.8,   -4.6,   -4.4,   -4.3,   -4.3,   -4.3,   -4.3,   -4.4,   -4.4,   -4.4,   -4.3,   -4.2,   -4.1,   -4.0,   -4.1,   -3.6,   -3.5,   -3.6,   -3.2,   -3.2,   -3.6,   -3.8,   -3.2,   -3.7,   -4.1,   -4.6,   -4.3,   -4.5,   -4.9,   -4.6,   -4.5,   -4.6,   -4.6,   -4.7,   -4.6,   -4.8,   -4.4,  999.0,  999.0,  999.0,   -1.6,   -1.7,   -1.8,   -1.8,   -1.7,   -1.6,   -1.6,   -1.5,   -1.2,   -1.1,   -1.2,   -1.2,   -1.2,   -1.1,   -1.1,   -1.2,   -1.1,   -1.1,   -1.0,   -1.0,   -0.9,   -0.9,   -1.0,   -1.0,   -1.0,   -1.0,   -1.0,   -0.9,   -0.9,   -0.9,   -0.9,   -0.8,   -0.8,   -0.8,   -0.7,   -0.6,   -0.6,  999.0,  999.0,  999.0,  999.0,  999.0,  999.0,  999.0,  999.0,  999.0,  999.0,  999.0,  999.0,  999.0,  999.0,  999.0
2010/10/28 03:00,   -3.8,   -3.8,   -3.8,   -3.9,   -4.1,   -4.3,   -4.2,   -4.2,   -4.1,   -4.0,   -4.0,   -4.0,   -4.2,   -4.3,   -4.4,   -4.4,   -4.4,   -4.4,   -4.4,   -4.6,   -4.8,   -5.0,   -5.0,   -5.0,   -5.2,   -5.3,   -5.1,   -5.1,   -5.1,   -5.0,   -5.0,   -5.1,   -5.1,   -5.0,   -4.9,   -4.8,   -4.9,   -4.9,   -5.0,   -5.0,   -5.0,   -5.2,   -4.3,  999.0,  999.0,   -1.9,   -1.8,   -1.6,   -1.5,   -1.5,   -1.5,   -1.5,   -1.4,   -1.2,   -1.0,   -0.9,   -0.9,   -1.1,   -1.2,   -1.2,   -1.1,   -1.1,   -1.1,   -1.2,   -1.1,   -1.1,   -1.0,   -0.9,   -0.9,   -0.9,   -0.9,   -0.8,   -0.9,   -0.9,   -0.8,   -0.9,   -0.9,   -0.9,   -0.9,   -0.8,   -0.7,   -0.8,   -0.6,  999.0,  999.0,   -0.7,  999.0,  999.0,   -0.7,  999.0,  999.0,   -0.7,   -0.4,  999.0,  999.0,  999.0,  999.0,  999.0
2010/10/28 03:10,   -4.5,   -4.4,   -4.5,   -4.4,   -4.4,   -4.4,   -4.4,   -4.3,   -4.3,   -4.2,   -4.2,   -4.2,   -4.3,   -4.2,   -4.2,   -4.1,   -4.2,   -4.3,   -4.4,   -4.2,   -4.2,   -4.1,   -4.0,   -4.0,   -4.1,   -4.1,   -4.1,   -4.2,   -4.2,   -4.4,   -4.3,   -4.5,   -4.4,   -4.0,   -4.0,   -3.7,   -3.8,   -3.9,   -4.0,   -4.1,   -4.0,   -4.3,   -3.7,   -2.6,   -1.8,   -1.7,   -1.7,   -1.6,   -1.5,   -1.5,   -1.4,   -1.3,   -1.2,   -1.2,   -1.2,   -1.3,   -1.2,   -1.2,   -1.1,   -1.2,   -1.2,   -1.1,   -1.1,   -1.0,   -1.1,   -1.0,   -1.0,   -0.9,   -0.9,   -1.0,   -0.9,   -0.9,   -0.8,   -0.8,   -0.8,   -0.8,   -0.8,   -0.8,   -0.9,   -0.9,   -0.9,   -0.9,   -0.9,   -0.8,   -0.9,   -0.8,  999.0,   -0.7,   -0.8,   -0.9,   -0.7,  999.0,  999.0,  999.0,  999.0,  999.0,  999.0,  999.0
2010/10/28 03:20,   -4.2,   -3.9,   -3.9,   -3.9,   -3.8,   -3.7,   -3.6,   -3.7,   -3.6,   -3.7,   -3.8,   -3.7,   -3.7,   -3.6,   -3.7,   -3.6,   -3.6,   -3.4,   -3.5,   -3.7,   -3.8,   -3.7,   -3.7,   -3.7,   -3.7,   -3.7,   -3.8,   -3.7,   -3.8,   -3.8,   -3.9,   -4.0,   -3.8,   -3.8,   -3.9,   -3.9,   -3.7,   -3.4,   -3.5,   -3.7,   -3.8,   -3.9,   -3.4,   -2.5,   -1.6,   -1.6,   -1.5,   -1.5,   -1.5,   -1.5,   -1.4,   -1.3,   -1.3,   -1.2,   -1.2,   -1.1,   -1.0,   -1.1,   -1.0,   -1.0,   -0.9,   -0.9,   -0.8,   -0.8,   -0.7,   -0.8,   -0.8,   -0.9,   -0.9,   -0.9,   -0.9,   -0.8,   -0.9,   -0.9,   -0.9,   -0.9,   -1.0,   -1.0,   -1.0,   -1.0,   -1.0,   -0.9,   -0.8,   -0.8,   -0.8,   -0.7,   -0.8,  999.0,  999.0,  999.0,  999.0,   -0.7,  999.0,   -0.7,  999.0,  999.0,  999.0,  999.0
2010/10/28 03:30,   -3.4,   -3.4,   -3.5,   -3.4,   -3.3,   -3.2,   -3.2,   -3.2,   -3.3,   -3.3,   -3.3,   -3.4,  999.0,  999.0,   -3.3,  999.0,   -3.7,   -3.6,   -3.3,   -3.2,   -3.1,   -3.1,   -3.0,   -2.9,   -2.8,   -2.9,   -3.0,   -2.9,   -2.9,   -2.8,   -2.4,   -2.2,   -2.1,   -2.4,   -2.3,   -2.4,   -2.4,   -2.4,   -2.4,   -2.4,   -2.4,   -2.4,   -2.5,   -2.4,   -1.8,   -1.2,   -1.1,   -1.1,   -1.2,   -1.2,   -1.2,   -1.2,   -1.3,   -1.3,   -1.2,   -1.2,   -1.2,   -1.1,   -1.1,   -1.0,   -0.9,   -0.9,   -0.9,   -0.8,   -0.8,   -0.7,   -0.8,   -0.8,   -0.8,   -0.9,   -1.0,   -1.0,   -1.0,   -1.0,   -1.1,   -1.1,   -1.1,   -1.2,   -1.2,   -1.2,   -1.2,   -1.1,   -1.0,   -1.0,   -0.9,   -0.9,   -0.9,   -0.9,   -0.8,   -0.7,   -0.7,   -0.7,  999.0,  999.0,  999.0,  999.0,  999.0,  999.0
2010/10/28 03:40,   -3.1,   -3.2,   -3.3,   -3.1,   -3.1,   -3.4,   -3.3,   -3.1,   -3.0,   -3.0,   -2.9,   -2.7,   -2.7,   -2.5,   -2.3,   -2.0,   -1.5,   -1.7,   -1.3,   -0.6,   -0.6,   -0.7,   -0.6,   -0.1,   -0.1,   -0.8,   -0.5,   -0.1,   -0.3,   -0.2,   -0.1,  999.0,   -0.1,   -0.0,   -0.0,   -0.1,   -0.6,  999.0,   -1.6,   -1.5,   -1.5,   -1.5,   -1.5,   -1.6,   -1.4,   -0.9,   -0.9,   -1.0,   -1.0,   -1.0,   -1.0,   -1.0,   -1.0,   -1.0,   -1.0,   -0.9,   -0.9,   -1.0,   -1.0,   -0.9,   -0.9,   -0.8,   -0.8,   -0.8,   -0.8,   -0.8,   -0.9,   -1.0,   -1.0,   -1.1,   -1.1,   -1.1,   -1.0,   -1.0,   -1.0,   -1.0,   -1.0,   -1.1,   -1.0,   -1.1,   -1.0,   -1.0,   -0.9,   -0.8,   -0.8,   -0.8,   -0.8,   -0.8,   -0.8,   -0.6,  999.0,  999.0,  999.0,  999.0,  999.0,  999.0,  999.0,  999.0
2010/10/28 03:50,   -3.0,   -2.8,   -2.8,   -2.8,   -2.7,   -2.6,   -2.5,   -2.6,   -2.6,   -1.2,   -0.8,   -0.7,   -0.6,   -0.0,   -0.0,   -0.1,   -0.1,    0.0,   -0.1,   -0.2,   -0.2,   -0.2,   -0.3,   -0.2,   -0.1,   -0.2,   -0.2,   -0.2,   -0.2,   -0.1,  999.0,  999.0,  999.0,  999.0,   -0.7,   -1.0,   -0.8,   -1.4,   -1.8,   -1.5,   -1.9,   -1.9,   -1.8,   -1.9,   -1.4,   -0.9,   -0.9,   -1.0,   -1.0,   -1.1,   -1.1,   -1.1,   -1.1,   -1.1,   -1.0,   -1.0,   -1.0,   -1.1,   -1.2,   -1.1,   -1.1,   -1.1,   -1.0,   -0.9,   -0.9,   -0.8,   -0.8,   -0.8,   -0.9,   -0.9,   -0.9,   -0.9,   -0.8,   -0.8,   -0.9,   -0.9,   -0.9,   -0.9,   -0.9,   -0.9,   -1.0,   -1.0,   -0.9,   -0.8,   -0.9,   -0.7,  999.0,  999.0,  999.0,  999.0,  999.0,  999.0,  999.0,  999.0,  999.0,  999.0,  999.0,  999.0
2010/10/28 04:00,  999.0,    0.1,   -0.9,   -1.0,   -0.8,    0.1,    0.2,    0.1,    0.0,   -0.0,    0.0,   -0.1,   -0.1,   -0.1,   -0.2,   -0.2,   -0.1,   -0.1,   -0.3,   -0.3,   -0.4,   -0.2,   -0.2,   -0.2,   -0.1,    0.0,   -0.1,   -0.1,   -0.1,   -0.0,   -0.7,   -1.3,   -1.3,   -1.4,   -1.4,   -1.5,  999.0,   -2.1,  999.0,  999.0,  999.0,   -1.7,   -2.0,   -2.1,   -1.7,   -1.3,   -1.2,   -1.2,   -1.2,   -1.2,   -1.4,   -1.3,   -1.2,   -1.1,   -1.1,   -1.0,   -1.0,   -1.1,   -1.0,   -0.9,   -0.8,   -0.8,   -0.8,   -0.8,   -0.7,   -0.7,   -0.8,   -0.9,   -0.9,   -1.0,   -0.9,   -0.8,   -0.8,   -0.8,   -0.8,   -0.7,   -0.8,  999.0,   -0.7,   -0.8,  999.0,  999.0,  999.0,   -0.8,  999.0,  999.0,  999.0,  999.0,  999.0,  999.0,  999.0,  999.0,  999.0,  999.0,  999.0,  999.0,  999.0,  999.0
2010/10/28 04:10,    0.0,   -0.0,    0.1,    0.1,    0.1,    0.2,    0.1,    0.1,    0.1,    0.0,   -0.1,   -0.1,   -0.0,   -0.0,   -0.0,    0.0,    0.0,   -0.1,   -0.1,   -0.3,   -0.2,   -0.3,   -0.2,  999.0,  999.0,  999.0,  999.0,   -2.1,   -2.2,   -2.4,   -2.3,   -2.3,   -2.2,   -2.2,   -2.2,   -2.3,  999.0,   -2.3,   -2.3,   -2.2,   -2.1,   -2.3,   -2.4,   -2.4,   -2.1,   -1.5,   -1.3,   -1.3,   -1.2,   -1.2,   -1.1,   -0.9,   -0.8,   -0.7,   -0.7,   -0.8,   -0.9,   -0.9,   -0.9,   -0.9,   -0.9,   -0.8,   -0.7,   -0.7,   -0.7,   -0.7,   -0.6,  999.0,  999.0,  999.0,  999.0,  999.0,  999.0,   -0.6,   -0.7,   -0.6,   -0.6,   -0.7,  999.0,  999.0,   -0.8,  999.0,   -0.8,  999.0,  999.0,  999.0,  999.0,  999.0,  999.0,  999.0,  999.0,  999.0,  999.0,  999.0,  999.0,  999.0,  999.0,  999.0
2010/10/28 04:20,    0.2,    0.3,    0.0,   -0.1,   -0.0,   -0.1,   -0.1,   -0.1,    0.0,    0.0,   -0.0,   -0.1,   -0.1,   -0.0,   -0.0,   -0.1,   -0.1,   -0.0,    0.0,   -0.0,   -0.1,   -0.0,   -0.1,  999.0,  999.0,  999.0,  999.0,   -1.2,   -2.2,   -2.2,   -1.8,   -1.8,   -1.8,   -1.8,   -1.8,   -1.7,   -1.6,   -1.6,   -1.7,   -1.7,   -1.7,   -1.7,   -1.8,   -1.8,   -1.7,   -1.2,   -1.0,   -0.8,   -0.9,   -0.9,   -0.8,   -0.6,   -0.4,   -0.3,   -0.2,   -0.3,   -0.4,   -0.3,   -0.4,   -0.1,  999.0,  999.0,  999.0,  999.0,  999.0,  999.0,  999.0,  999.0,  999.0,  999.0,  999.0,  999.0,  999.0,   -0.8,   -0.8,   -0.8,   -0.8,  999.0,  999.0,  999.0,  999.0,  999.0,  999.0,  999.0,  999.0,  999.0,  999.0,  999.0,  999.0,  999.0,  999.0,  999.0,  999.0,  999.0,  999.0,  999.0,  999.0,  999.0
2010/10/28 04:30,    0.1,   -0.0,    0.0,    0.0,    0.0,   -0.0,   -0.1,   -0.1,    0.1,   -0.1,   -0.1,   -0.1,   -0.1,   -0.1,   -0.2,   -0.1,  999.0,   -0.4,   -0.7,   -1.0,   -1.1,   -0.4,  999.0,   -0.9,   -1.4,   -1.8,   -1.6,  999.0,   -1.4,   -1.6,   -1.8,   -1.9,   -2.0,   -2.0,   -2.0,   -1.9,   -1.8,   -1.7,   -1.7,   -1.6,   -1.6,   -1.6,   -1.6,   -1.5,   -1.5,   -1.4,   -1.4,   -1.3,   -1.1,   -0.9,   -0.9,   -0.7,   -0.5,   -0.4,   -0.1,  999.0,  999.0,  999.0,  999.0,  999.0,  999.0,  999.0,  999.0,  999.0,  999.0,  999.0,  999.0,  999.0,  999.0,  999.0,  999.0,  999.0,  999.0,  999.0,  999.0,  999.0,  999.0,  999.0,  999.0,  999.0,  999.0,  999.0,  999.0,  999.0,  999.0,  999.0,  999.0,  999.0,  999.0,  999.0,  999.0,  999.0,  999.0,  999.0,  999.0,  999.0,  999.0,  999.0
2010/10/28 04:40,   -0.1,  999.0,  999.0,    0.1,   -0.1,   -0.2,   -0.1,   -0.1,   -0.1,   -0.0,   -0.0,   -0.1,   -0.1,   -0.1,   -0.1,   -0.1,   -0.0,  999.0,  999.0,  999.0,   -1.3,   -1.8,   -1.9,   -1.9,   -2.7,   -2.6,   -3.2,   -2.9,   -3.0,   -3.0,   -3.1,   -3.4,   -3.5,   -3.4,   -3.4,   -3.3,   -3.2,   -3.1,   -3.1,   -3.0,   -2.9,   -2.8,   -2.5,   -2.5,   -1.8,   -1.4,   -1.3,   -1.2,   -1.0,   -1.1,   -0.9,   -0.9,   -0.8,   -0.5,   -0.3,  999.0,    0.2,  999.0,  999.0,  999.0,  999.0,  999.0,  999.0,  999.0,  999.0,  999.0,  999.0,  999.0,  999.0,  999.0,  999.0,  999.0,  999.0,  999.0,  999.0,  999.0,  999.0,  999.0,  999.0,  999.0,  999.0,  999.0,  999.0,  999.0,  999.0,  999.0,  999.0,  999.0,  999.0,  999.0,  999.0,  999.0,  999.0,  999.0,   -0.4,  999.0,  999.0,  999.0
2010/10/28 04:50,  999.0,  999.0,  999.0,  999.0,  999.0,   -2.8,   -2.7,   -2.0,   -2.2,   -2.1,   -2.1,   -2.0,   -1.8,   -2.2,   -1.4,   -2.1,   -2.1,   -2.1,   -4.2,   -3.8,   -3.6,   -3.6,   -3.3,   -3.1,   -3.1,   -3.1,   -3.1,   -3.1,   -3.1,   -3.1,   -3.2,   -3.1,   -3.1,   -3.2,   -3.2,   -3.2,   -3.2,   -3.1,   -3.1,   -3.0,   -2.7,   -2.7,   -2.4,   -2.3,  999.0,   -1.3,   -1.3,   -1.2,   -1.2,   -1.1,   -1.1,   -0.8,   -0.6,   -0.5,   -0.4,   -0.1,    0.2,  999.0,  999.0,  999.0,  999.0,  999.0,  999.0,  999.0,  999.0,  999.0,  999.0,  999.0,  999.0,  999.0,  999.0,  999.0,  999.0,  999.0,  999.0,  999.0,  999.0,  999.0,  999.0,  999.0,  999.0,  999.0,  999.0,  999.0,  999.0,  999.0,  999.0,  999.0,  999.0,  999.0,  999.0,  999.0,  999.0,  999.0,  999.0,  999.0,  999.0,  999.0
2010/10/28 05:00,  999.0,  999.0,  999.0,   -5.6,   -5.6,   -4.5,   -4.8,   -4.8,   -4.8,  999.0,   -5.2,   -5.3,   -5.3,   -4.8,   -4.6,   -4.4,   -4.3,   -4.2,   -4.1,   -3.9,   -3.6,   -3.2,   -2.8,   -3.7,   -3.5,   -3.4,   -3.3,   -3.2,   -3.1,   -3.3,   -3.1,   -3.2,   -3.3,   -3.8,   -3.4,   -3.3,   -3.6,   -3.6,   -3.4,   -3.6,   -3.5,   -3.3,   -3.4,   -2.7,  999.0,   -1.3,   -1.6,   -1.3,   -1.1,   -0.9,   -0.8,   -0.8,   -0.8,   -0.7,   -0.5,  999.0,  999.0,  999.0,  999.0,  999.0,  999.0,  999.0,  999.0,  999.0,  999.0,  999.0,  999.0,  999.0,  999.0,  999.0,  999.0,  999.0,  999.0,  999.0,  999.0,  999.0,  999.0,  999.0,  999.0,  999.0,  999.0,  999.0,  999.0,  999.0,  999.0,  999.0,  999.0,  999.0,  999.0,  999.0,  999.0,  999.0,  999.0,  999.0,  999.0,  999.0,  999.0,  999.0
2010/10/28 05:10,  999.0,  999.0,   -4.5,   -4.6,   -4.6,   -4.5,   -4.4,   -4.6,   -5.2,   -5.1,   -5.4,   -5.2,   -4.9,   -4.8,   -5.0,   -4.8,   -4.9,   -5.0,   -5.0,   -4.9,   -4.5,   -4.5,   -4.5,   -4.4,   -4.5,   -4.4,   -4.1,   -4.0,   -3.9,   -4.0,   -4.0,   -4.1,   -4.2,   -4.3,   -4.3,   -4.2,   -4.1,   -3.7,   -3.6,   -3.4,   -3.1,   -2.9,   -3.1,   -2.8,  999.0,  999.0,   -2.1,   -1.8,  999.0,   -1.1,   -0.7,  999.0,  999.0,  999.0,  999.0,  999.0,  999.0,    0.1,  999.0,  999.0,  999.0,  999.0,  999.0,  999.0,  999.0,  999.0,  999.0,  999.0,  999.0,  999.0,  999.0,  999.0,  999.0,  999.0,  999.0,  999.0,  999.0,  999.0,  999.0,  999.0,  999.0,  999.0,  999.0,  999.0,  999.0,  999.0,  999.0,  999.0,  999.0,  999.0,  999.0,  999.0,  999.0,  999.0,  999.0,  999.0,  999.0,  999.0
2010/10/28 05:20,   -3.7,   -3.9,   -4.1,   -3.9,   -4.7,   -4.6,   -4.6,   -4.8,   -5.1,  999.0,   -5.5,   -5.4,   -5.2,   -4.9,   -4.5,   -4.7,   -4.3,   -4.2,   -4.8,   -4.4,   -4.1,   -4.0,   -3.3,   -3.0,   -2.8,   -2.6,   -2.7,   -2.7,   -2.6,   -2.6,   -2.4,   -2.5,   -2.4,   -2.4,   -2.7,   -3.0,   -3.1,   -2.9,   -2.8,   -2.9,   -2.8,   -2.7,   -2.4,   -2.3,   -1.7,  999.0,   -2.1,   -1.7,   -1.5,  999.0,  999.0,   -1.8,  999.0,  999.0,  999.0,    0.1,    0.2,  999.0,  999.0,  999.0,  999.0,  999.0,  999.0,  999.0,  999.0,    0.5,  999.0,  999.0,  999.0,  999.0,  999.0,  999.0,  999.0,  999.0,  999.0,  999.0,  999.0,  999.0,  999.0,  999.0,  999.0,  999.0,  999.0,  999.0,  999.0,  999.0,  999.0,  999.0,  999.0,  999.0,  999.0,  999.0,  999.0,  999.0,  999.0,  999.0,  999.0,  999.0
2010/10/28 05:30,   -6.8,   -6.7,   -6.6,   -6.3,   -6.0,   -5.7,   -5.6,   -5.4,   -5.2,   -4.9,   -4.5,   -4.1,   -3.8,   -3.3,  999.0,  999.0,   -4.4,   -3.9,   -3.3,   -3.2,   -2.4,  999.0,  999.0,   -0.7,   -0.5,   -0.1,  999.0,   -0.1,   -0.1,    0.2,    0.1,  999.0,  999.0,  999.0,   -0.2,   -0.1,   -0.3,   -0.1,  999.0,   -0.2,   -0.0,  999.0,  999.0,  999.0,  999.0,  999.0,  999.0,   -1.7,  999.0,  999.0,  999.0,  999.0,  999.0,  999.0,  999.0,   -0.2,  999.0,  999.0,   -0.0,  999.0,  999.0,  999.0,  999.0,  999.0,  999.0,  999.0,  999.0,  999.0,  999.0,  999.0,  999.0,  999.0,  999.0,  999.0,  999.0,  999.0,  999.0,  999.0,  999.0,  999.0,  999.0,  999.0,  999.0,  999.0,  999.0,  999.0,  999.0,  999.0,  999.0,  999.0,  999.0,  999.0,  999.0,  999.0,  999.0,  999.0,  999.0,  999.0
2010/10/28 05:40,   -5.6,   -5.7,   -5.4,   -5.4,   -5.2,   -5.0,   -4.9,   -4.6,   -4.4,   -4.1,   -3.7,   -3.3,   -3.1,   -2.8,   -2.9,  999.0,  999.0,   -1.0,   -0.7,   -0.1,   -0.1,   -0.1,   -0.1,   -0.0,   -0.1,  999.0,  999.0,    0.0,    0.0,    0.1,   -0.0,  999.0,    0.1,   -0.0,    0.1,  999.0,    0.1,    0.1,  999.0,  999.0,    0.3,    0.2,  999.0,  999.0,  999.0,  999.0,  999.0,  999.0,  999.0,    0.1,   -0.1,  999.0,  999.0,  999.0,    0.0,  999.0,  999.0,  999.0,    0.1,  999.0,  999.0,  999.0,  999.0,  999.0,  999.0,  999.0,  999.0,  999.0,  999.0,  999.0,  999.0,  999.0,  999.0,  999.0,  999.0,  999.0,  999.0,  999.0,  999.0,  999.0,  999.0,  999.0,  999.0,  999.0,  999.0,  999.0,  999.0,  999.0,  999.0,  999.0,  999.0,  999.0,  999.0,  999.0,  999.0,  999.0,  999.0,  999.0
2010/10/28 05:50,   -4.6,   -4.6,   -4.5,   -4.3,   -4.1,   -3.7,   -3.5,   -3.4,   -3.4,   -3.3,   -3.1,   -3.0,   -2.1,   -2.4,   -2.1,  999.0,   -0.1,   -0.1,   -0.1,    0.0,    0.1,    0.1,  999.0,    0.0,   -0.0,   -0.1,   -0.1,   -0.1,   -0.1,   -0.1,   -0.1,   -0.1,  999.0,   -0.2,    0.0,  999.0,  999.0,  999.0,  999.0,  999.0,    0.0,   -0.1,  999.0,  999.0,  999.0,  999.0,  999.0,  999.0,  999.0,    0.1,  999.0,   -0.0,  999.0,   -0.2,   -0.1,  999.0,  999.0,   -0.1,  999.0,  999.0,  999.0,  999.0,  999.0,  999.0,  999.0,  999.0,  999.0,  999.0,  999.0,  999.0,  999.0,  999.0,  999.0,  999.0,  999.0,  999.0,  999.0,  999.0,  999.0,  999.0,  999.0,  999.0,  999.0,  999.0,  999.0,  999.0,  999.0,  999.0,  999.0,  999.0,  999.0,  999.0,  999.0,  999.0,  999.0,  999.0,  999.0,  999.0
2010/10/28 06:00,   -0.0,    0.1,    0.0,    0.0,    0.3,   -0.0,   -1.0,   -1.1,   -1.0,   -0.9,   -0.1,   -0.1,   -0.1,   -0.1,   -0.1,   -0.2,   -0.1,   -0.0,    0.0,    0.1,    0.2,    0.2,    0.1,    0.1,   -0.0,   -0.0,    0.0,   -0.1,  999.0,   -0.0,   -0.0,  999.0,  999.0,   -0.2,    0.0,  999.0,  999.0,  999.0,  999.0,  999.0,    0.1,    0.2,  999.0,  999.0,  999.0,  999.0,  999.0,  999.0,  999.0,  999.0,   -0.1,  999.0,  999.0,  999.0,    0.2,  999.0,  999.0,  999.0,  999.0,  999.0,  999.0,  999.0,  999.0,  999.0,  999.0,  999.0,  999.0,  999.0,  999.0,  999.0,  999.0,  999.0,  999.0,  999.0,  999.0,  999.0,  999.0,  999.0,  999.0,  999.0,  999.0,  999.0,  999.0,  999.0,  999.0,  999.0,  999.0,  999.0,  999.0,  999.0,  999.0,  999.0,  999.0,  999.0,  999.0,  999.0,  999.0,  999.0
2010/10/28 06:10,    0.0,   -0.0,    0.0,    0.1,    0.0,    0.1,    0.1,    0.1,    0.1,    0.1,    0.0,    0.0,   -0.1,   -0.1,   -0.0,   -0.0,   -0.0,    0.0,    0.1,    0.1,    0.1,    0.2,    0.1,    0.1,    0.1,    0.0,    0.1,   -0.1,   -0.3,   -0.1,   -0.1,  999.0,  999.0,    0.1,    0.1,  999.0,  999.0,  999.0,    0.2,  999.0,  999.0,    0.1,    0.1,  999.0,  999.0,  999.0,  999.0,  999.0,  999.0,  999.0,    0.0,  999.0,   -0.0,   -0.0,   -0.0,  999.0,  999.0,  999.0,  999.0,  999.0,  999.0,  999.0,  999.0,  999.0,  999.0,  999.0,  999.0,  999.0,  999.0,  999.0,  999.0,  999.0,  999.0,   -0.1,   -0.1,   -0.1,  999.0,  999.0,  999.0,   -0.1,  999.0,  999.0,   -0.1,   -0.1,   -0.1,  999.0,   -0.1,   -0.1,  999.0,  999.0,  999.0,  999.0,  999.0,   -0.1,   -0.1,   -0.1,  999.0,   -0.1
2010/10/28 06:20,    0.0,    0.0,    0.0,    0.0,    0.1,    0.1,    0.1,    0.2,    0.2,    0.1,    0.1,    0.2,    0.1,    0.1,    0.0,   -0.0,    0.0,    0.1,    0.1,    0.2,    0.2,    0.2,    0.3,    0.1,    0.1,    0.1,  999.0,   -0.2,   -0.2,   -0.3,   -0.2,  999.0,  999.0,    0.2,    0.2,  999.0,  999.0,  999.0,  999.0,  999.0,  999.0,  999.0,    0.1,  999.0,  999.0,  999.0,  999.0,  999.0,  999.0,  999.0,   -0.5,   -0.4,   -0.1,   -0.1,   -0.0,  999.0,  999.0,  999.0,  999.0,  999.0,  999.0,  999.0,  999.0,   -0.1,  999.0,  999.0,  999.0,  999.0,  999.0,  999.0,  999.0,  999.0,  999.0,  999.0,  999.0,  999.0,  999.0,  999.0,  999.0,  999.0,  999.0,  999.0,  999.0,  999.0,  999.0,  999.0,  999.0,  999.0,  999.0,  999.0,   -0.2,  999.0,  999.0,  999.0,  999.0,  999.0,  999.0,  999.0
2010/10/28 06:30,   -0.0,    0.0,   -0.0,   -0.0,   -0.0,    0.0,    0.0,    0.1,    0.1,    0.1,    0.1,    0.0,    0.0,    0.0,    0.0,   -0.0,   -0.0,   -0.0,    0.1,    0.1,    0.2,    0.1,    0.2,    0.1,    0.1,    0.1,   -0.1,    0.2,   -0.1,   -0.2,  999.0,  999.0,  999.0,    0.1,    0.2,    0.4,  999.0,  999.0,  999.0,  999.0,  999.0,  999.0,    0.0,  999.0,  999.0,  999.0,  999.0,  999.0,  999.0,   -0.8,   -0.3,   -0.2,   -0.2,   -0.3,   -0.0,  999.0,  999.0,  999.0,  999.0,  999.0,  999.0,  999.0,  999.0,  999.0,  999.0,  999.0,  999.0,  999.0,  999.0,  999.0,  999.0,  999.0,  999.0,  999.0,  999.0,  999.0,  999.0,  999.0,  999.0,  999.0,  999.0,  999.0,  999.0,  999.0,  999.0,  999.0,  999.0,  999.0,  999.0,  999.0,  999.0,  999.0,  999.0,  999.0,  999.0,  999.0,  999.0,  999.0
2010/10/28 06:40,    0.0,    0.0,   -0.0,   -0.0,   -0.0,    0.0,    0.0,   -0.0,   -0.0,   -0.0,    0.0,   -0.0,   -0.0,    0.0,    0.0,   -0.0,   -0.1,   -0.1,   -0.0,    0.0,   -0.1,   -0.1,    0.1,    0.1,    0.0,   -0.0,    0.0,   -0.1,   -0.3,   -0.2,   -0.3,   -0.1,   -0.1,    0.1,    0.1,  999.0,  999.0,  999.0,  999.0,  999.0,  999.0,  999.0,   -0.2,  999.0,  999.0,  999.0,  999.0,  999.0,  999.0,   -0.0,  999.0,   -0.3,   -0.2,  999.0,  999.0,  999.0,  999.0,  999.0,  999.0,  999.0,  999.0,   -0.1,  999.0,  999.0,  999.0,  999.0,  999.0,  999.0,  999.0,  999.0,  999.0,  999.0,  999.0,  999.0,  999.0,  999.0,  999.0,  999.0,  999.0,  999.0,  999.0,  999.0,  999.0,  999.0,  999.0,  999.0,  999.0,  999.0,  999.0,  999.0,  999.0,  999.0,  999.0,  999.0,  999.0,  999.0,  999.0,  999.0
2010/10/28 06:50,   -0.0,   -0.0,    0.0,    0.0,    0.1,    0.0,   -0.0,   -0.0,    0.0,    0.1,    0.1,    0.1,    0.1,    0.1,    0.1,    0.1,    0.0,    0.1,    0.1,    0.2,    0.0,  999.0,    0.2,  999.0,    0.0,    0.3,    0.2,    0.1,    0.2,    0.0,   -0.1,   -0.1,   -0.1,   -0.0,   -0.1,  999.0,  999.0,  999.0,  999.0,  999.0,  999.0,  999.0,  999.0,    0.4,    0.0,   -0.1,    0.0,  999.0,  999.0,  999.0,   -0.1,    0.0,    0.0,  999.0,  999.0,  999.0,  999.0,   -0.1,  999.0,  999.0,  999.0,  999.0,  999.0,  999.0,  999.0,  999.0,  999.0,  999.0,  999.0,  999.0,  999.0,  999.0,  999.0,  999.0,  999.0,  999.0,  999.0,  999.0,  999.0,  999.0,  999.0,  999.0,  999.0,  999.0,  999.0,  999.0,  999.0,  999.0,  999.0,  999.0,  999.0,  999.0,  999.0,  999.0,  999.0,  999.0,  999.0,  999.0
2010/10/28 07:00,    0.0,    0.1,   -0.0,   -0.0,    0.0,    0.0,   -0.0,    0.0,   -0.1,   -0.0,    0.1,    0.1,    0.0,    0.1,    0.0,    0.0,   -0.0,   -0.1,   -0.2,   -0.0,  999.0,   -0.1,  999.0,  999.0,  999.0,    0.0,    0.0,    0.0,    0.1,  999.0,   -0.0,    0.0,    0.0,    0.1,   -0.0,  999.0,  999.0,  999.0,  999.0,  999.0,  999.0,  999.0,   -0.0,    0.2,  999.0,  999.0,  999.0,  999.0,  999.0,  999.0,   -0.0,    0.0,  999.0,  999.0,  999.0,  999.0,   -0.3,  999.0,  999.0,  999.0,  999.0,   -0.1,  999.0,  999.0,  999.0,  999.0,  999.0,  999.0,  999.0,  999.0,  999.0,  999.0,  999.0,  999.0,  999.0,  999.0,  999.0,  999.0,  999.0,  999.0,  999.0,  999.0,  999.0,  999.0,  999.0,  999.0,  999.0,   -0.0,  999.0,  999.0,  999.0,  999.0,  999.0,  999.0,  999.0,  999.0,  999.0,  999.0
2010/10/28 07:10,   -0.0,   -0.0,    0.0,    0.1,    0.1,    0.1,   -0.0,   -0.0,    0.1,    0.1,    0.1,    0.1,    0.1,    0.0,    0.0,   -0.0,    0.0,    0.1,    0.1,    0.0,   -0.0,    0.0,   -0.1,   -0.1,   -0.0,   -0.0,   -0.0,    0.0,   -0.0,  999.0,   -0.0,    0.0,    0.1,    0.1,  999.0,   -0.0,  999.0,  999.0,  999.0,  999.0,  999.0,    0.2,    0.2,    0.1,  999.0,  999.0,  999.0,  999.0,  999.0,  999.0,  999.0,  999.0,  999.0,  999.0,  999.0,  999.0,  999.0,  999.0,  999.0,  999.0,  999.0,  999.0,  999.0,  999.0,  999.0,  999.0,  999.0,  999.0,  999.0,  999.0,  999.0,  999.0,  999.0,  999.0,  999.0,  999.0,  999.0,  999.0,  999.0,  999.0,  999.0,  999.0,  999.0,  999.0,  999.0,  999.0,  999.0,  999.0,  999.0,  999.0,    0.1,  999.0,  999.0,  999.0,  999.0,    0.2,    0.2,  999.0
2010/10/28 07:20,    0.0,   -0.0,   -0.1,   -0.1,   -0.1,   -0.1,   -0.0,    0.0,    0.0,    0.1,    0.1,    0.0,    0.0,   -0.0,   -0.0,   -0.1,   -0.1,   -0.1,   -0.1,  999.0,  999.0,    0.2,    0.1,    0.1,    0.1,    0.2,    0.1,    0.1,    0.2,  999.0,    0.0,   -0.0,   -0.0,   -0.1,   -0.1,    0.0,  999.0,  999.0,  999.0,   -0.1,  999.0,  999.0,    0.1,    0.0,  999.0,  999.0,  999.0,   -0.1,  999.0,  999.0,  999.0,  999.0,  999.0,  999.0,  999.0,  999.0,  999.0,  999.0,  999.0,  999.0,  999.0,  999.0,  999.0,  999.0,  999.0,  999.0,  999.0,  999.0,  999.0,  999.0,  999.0,  999.0,  999.0,  999.0,  999.0,  999.0,  999.0,  999.0,  999.0,  999.0,  999.0,  999.0,  999.0,    0.1,  999.0,  999.0,  999.0,  999.0,  999.0,  999.0,  999.0,  999.0,  999.0,  999.0,    0.1,  999.0,  999.0,  999.0
2010/10/28 07:30,  999.0,    0.0,   -0.0,    0.0,    0.0,    0.0,   -0.0,    0.0,   -0.0,    0.0,    0.0,    0.0,    0.0,    0.0,    0.0,    0.1,    0.1,    0.0,    0.1,    0.0,    0.1,    0.1,    0.1,    0.2,    0.1,    0.2,    0.0,    0.1,    0.0,    0.1,  999.0,  999.0,    0.0,   -0.1,  999.0,  999.0,   -0.0,    0.0,    0.0,  999.0,  999.0,  999.0,  999.0,    0.2,  999.0,  999.0,  999.0,  999.0,  999.0,  999.0,  999.0,    0.3,  999.0,  999.0,  999.0,  999.0,  999.0,  999.0,  999.0,  999.0,  999.0,  999.0,  999.0,  999.0,  999.0,  999.0,  999.0,  999.0,  999.0,  999.0,  999.0,  999.0,  999.0,  999.0,  999.0,  999.0,  999.0,  999.0,  999.0,  999.0,  999.0,  999.0,  999.0,    0.4,  999.0,  999.0,  999.0,  999.0,  999.0,  999.0,  999.0,  999.0,  999.0,  999.0,  999.0,  999.0,  999.0,  999.0
2010/10/28 07:40,   -0.0,   -0.0,    0.0,   -0.0,   -0.0,   -0.0,   -0.0,    0.0,    0.0,   -0.0,   -0.0,   -0.1,   -0.0,   -0.0,    0.0,   -0.0,   -0.1,   -0.1,   -0.1,   -0.1,   -0.1,   -0.2,   -0.1,   -0.1,    0.0,   -0.0,    0.0,   -0.1,   -0.1,   -0.2,  999.0,  999.0,   -0.1,  999.0,  999.0,   -0.1,    0.1,   -0.0,   -0.1,  999.0,  999.0,  999.0,  999.0,  999.0,  999.0,  999.0,  999.0,  999.0,  999.0,  999.0,  999.0,    0.0,  999.0,  999.0,  999.0,  999.0,  999.0,  999.0,  999.0,  999.0,  999.0,  999.0,  999.0,  999.0,  999.0,  999.0,  999.0,  999.0,  999.0,  999.0,  999.0,  999.0,  999.0,  999.0,  999.0,  999.0,  999.0,  999.0,  999.0,  999.0,  999.0,  999.0,  999.0,  999.0,  999.0,  999.0,    0.4,  999.0,  999.0,  999.0,  999.0,  999.0,  999.0,  999.0,  999.0,  999.0,  999.0,  999.0
2010/10/28 07:50,    0.0,    0.0,    0.0,    0.0,   -0.0,   -0.0,   -0.0,   -0.0,   -0.1,   -0.1,   -0.1,   -0.1,   -0.0,   -0.0,   -0.0,   -0.1,   -0.0,    0.2,    0.0,  999.0,    0.1,    0.0,    0.1,    0.1,   -0.0,    0.0,    0.0,    0.0,    0.1,    0.1,   -0.1,   -0.0,   -0.0,  999.0,  999.0,   -0.0,   -0.0,    0.0,    0.0,    0.0,  999.0,  999.0,   -0.0,   -0.2,   -0.2,  999.0,  999.0,  999.0,  999.0,  999.0,  999.0,   -0.3,  999.0,  999.0,  999.0,  999.0,  999.0,  999.0,  999.0,  999.0,  999.0,  999.0,  999.0,  999.0,  999.0,  999.0,  999.0,  999.0,  999.0,  999.0,  999.0,  999.0,  999.0,  999.0,  999.0,  999.0,  999.0,  999.0,  999.0,  999.0,  999.0,  999.0,  999.0,  999.0,  999.0,  999.0,  999.0,  999.0,  999.0,  999.0,  999.0,  999.0,  999.0,  999.0,  999.0,  999.0,  999.0,  999.0
2010/10/28 08:00,   -0.0,   -0.0,   -0.0,    0.0,    0.0,    0.0,    0.0,   -0.1,    0.0,   -0.0,   -0.0,   -0.0,    0.0,    0.1,    0.0,   -0.0,   -0.0,   -0.0,    0.0,   -0.1,    0.1,    0.1,    0.0,    0.1,  999.0,    0.2,   -0.0,   -0.0,   -0.1,  999.0,   -0.1,   -0.2,   -0.0,    0.0,   -0.0,   -0.0,   -0.1,   -0.0,    0.0,   -0.1,    0.3,  999.0,  999.0,   -0.0,   -0.1,  999.0,  999.0,  999.0,  999.0,  999.0,  999.0,  999.0,    0.0,  999.0,  999.0,  999.0,  999.0,  999.0,  999.0,  999.0,  999.0,  999.0,  999.0,  999.0,  999.0,  999.0,  999.0,  999.0,  999.0,  999.0,  999.0,  999.0,  999.0,  999.0,  999.0,  999.0,  999.0,  999.0,  999.0,  999.0,  999.0,  999.0,  999.0,  999.0,  999.0,  999.0,  999.0,  999.0,  999.0,  999.0,  999.0,  999.0,  999.0,  999.0,  999.0,  999.0,  999.0,  999.0
2010/10/28 08:10,   -0.1,   -0.1,   -0.0,   -0.0,    0.0,    0.0,    0.0,    0.0,   -0.0,   -0.1,   -0.0,   -0.0,   -0.0,   -0.1,   -0.1,   -0.2,   -0.1,   -0.1,   -0.0,   -0.1,   -0.1,   -0.1,   -0.0,   -0.0,    0.0,   -0.0,   -0.0,   -0.0,    0.0,   -0.1,    0.0,   -0.1,   -0.0,   -0.0,    0.1,   -0.0,   -0.1,   -0.1,   -0.1,   -0.1,   -0.1,  999.0,  999.0,   -0.2,   -0.3,   -0.2,   -0.3,  999.0,  999.0,  999.0,  999.0,  999.0,  999.0,  999.0,  999.0,  999.0,  999.0,  999.0,  999.0,  999.0,  999.0,  999.0,  999.0,  999.0,  999.0,  999.0,  999.0,  999.0,  999.0,  999.0,  999.0,  999.0,  999.0,  999.0,  999.0,  999.0,  999.0,  999.0,  999.0,  999.0,  999.0,  999.0,  999.0,  999.0,  999.0,  999.0,  999.0,  999.0,  999.0,  999.0,  999.0,  999.0,  999.0,  999.0,  999.0,  999.0,  999.0,  999.0
2010/10/28 08:20,   -0.0,   -0.0,   -0.1,    0.1,    0.0,   -0.0,    0.0,   -0.0,   -0.0,   -0.0,   -0.0,   -0.0,    0.0,    0.0,    0.0,    0.0,    0.0,   -0.0,   -0.1,   -0.1,   -0.1,  999.0,   -0.1,    0.1,   -0.0,    0.0,    0.1,    0.0,    0.1,    0.1,    0.1,    0.1,    0.1,    0.1,   -0.0,    0.1,    0.2,  999.0,    0.0,  999.0,   -0.1,   -0.1,   -0.2,   -0.1,   -0.3,  999.0,   -0.1,    0.0,  999.0,  999.0,  999.0,    0.0,  999.0,  999.0,  999.0,  999.0,  999.0,  999.0,  999.0,  999.0,  999.0,  999.0,  999.0,  999.0,  999.0,  999.0,  999.0,  999.0,  999.0,  999.0,  999.0,  999.0,  999.0,  999.0,  999.0,  999.0,  999.0,  999.0,  999.0,  999.0,  999.0,  999.0,  999.0,  999.0,  999.0,  999.0,  999.0,  999.0,  999.0,  999.0,  999.0,  999.0,  999.0,  999.0,  999.0,  999.0,  999.0,  999.0
2010/10/28 08:30,   -0.0,    0.1,    0.4,    0.1,    0.0,   -0.0,    0.0,    0.0,    0.0,   -0.0,   -0.0,    0.1,    0.1,    0.1,    0.0,    0.1,    0.1,    0.1,    0.1,    0.0,   -0.0,   -0.1,  999.0,    0.0,    0.1,    0.0,    0.0,    0.1,    0.1,    0.1,    0.2,    0.2,    0.1,    0.1,    0.0,    0.1,    0.2,    0.1,   -0.0,    0.1,  999.0,  999.0,    0.0,  999.0,   -0.3,   -0.1,  999.0,   -0.1,   -0.1,  999.0,  999.0,  999.0,  999.0,  999.0,  999.0,  999.0,  999.0,  999.0,  999.0,  999.0,  999.0,  999.0,  999.0,  999.0,  999.0,  999.0,  999.0,  999.0,  999.0,  999.0,  999.0,  999.0,  999.0,  999.0,  999.0,  999.0,  999.0,  999.0,  999.0,  999.0,  999.0,  999.0,  999.0,  999.0,  999.0,  999.0,  999.0,  999.0,  999.0,  999.0,  999.0,  999.0,  999.0,  999.0,  999.0,  999.0,  999.0,  999.0
2010/10/28 08:40,   -0.0,   -0.1,    0.2,   -0.1,   -0.2,   -0.1,   -0.0,   -0.0,    0.1,   -0.0,   -0.1,   -0.0,   -0.0,    0.0,    0.1,    0.1,    0.1,    0.0,    0.0,    0.0,    0.1,  999.0,    0.0,    0.1,    0.2,    0.2,    0.1,    0.0,   -0.0,   -0.1,   -0.1,   -0.1,   -0.1,   -0.0,   -0.2,   -0.2,   -0.2,  999.0,   -0.0,  999.0,  999.0,  999.0,  999.0,  999.0,  999.0,    0.0,   -0.0,  999.0,  999.0,  999.0,  999.0,  999.0,  999.0,  999.0,  999.0,  999.0,  999.0,  999.0,  999.0,  999.0,  999.0,  999.0,  999.0,  999.0,  999.0,  999.0,  999.0,  999.0,  999.0,  999.0,  999.0,  999.0,  999.0,  999.0,  999.0,  999.0,  999.0,  999.0,  999.0,  999.0,  999.0,  999.0,  999.0,  999.0,  999.0,  999.0,  999.0,  999.0,  999.0,  999.0,  999.0,  999.0,  999.0,  999.0,  999.0,  999.0,  999.0,  999.0
2010/10/28 08:50,    0.1,    0.0,   -0.1,    0.1,    0.1,    0.1,    0.0,   -0.0,   -0.1,   -0.1,   -0.1,   -0.0,    0.0,    0.0,    0.0,    0.0,    0.1,    0.1,    0.1,    0.1,    0.1,    0.3,  999.0,    0.1,    0.2,    0.2,    0.2,   -0.1,   -0.0,   -0.0,    0.0,   -0.0,    0.0,   -0.0,  999.0,  999.0,   -0.1,  999.0,   -0.1,  999.0,  999.0,  999.0,  999.0,  999.0,  999.0,  999.0,  999.0,  999.0,  999.0,  999.0,  999.0,  999.0,  999.0,  999.0,  999.0,  999.0,  999.0,  999.0,  999.0,  999.0,  999.0,  999.0,  999.0,  999.0,  999.0,  999.0,  999.0,  999.0,  999.0,  999.0,  999.0,  999.0,  999.0,  999.0,  999.0,  999.0,  999.0,  999.0,  999.0,  999.0,  999.0,  999.0,  999.0,  999.0,  999.0,  999.0,  999.0,  999.0,  999.0,  999.0,  999.0,  999.0,  999.0,  999.0,  999.0,  999.0,  999.0,  999.0
2010/10/28 09:00,    0.0,    0.1,   -0.2,    0.0,   -0.1,   -0.0,   -0.0,   -0.1,   -0.1,   -0.2,   -0.2,   -0.2,   -0.2,   -0.1,   -0.0,   -0.0,    0.0,   -0.0,   -0.1,   -0.1,   -0.0,  999.0,  999.0,  999.0,    0.1,    0.1,    0.1,    0.1,    0.1,    0.1,    0.1,    0.0,    0.1,    0.1,  999.0,    0.1,  999.0,  999.0,    0.2,  999.0,  999.0,  999.0,  999.0,  999.0,   -0.0,   -0.2,  999.0,   -0.0,   -0.1,  999.0,  999.0,  999.0,  999.0,  999.0,  999.0,  999.0,  999.0,  999.0,  999.0,  999.0,  999.0,  999.0,  999.0,  999.0,  999.0,  999.0,  999.0,  999.0,  999.0,  999.0,  999.0,  999.0,  999.0,  999.0,  999.0,  999.0,  999.0,  999.0,  999.0,  999.0,  999.0,  999.0,  999.0,  999.0,  999.0,  999.0,    0.1,  999.0,  999.0,    0.1,  999.0,    0.1,  999.0,  999.0,  999.0,  999.0,  999.0,  999.0
2010/10/28 09:10,   -0.1,   -0.0,    0.1,    0.1,    0.2,    0.1,    0.0,   -0.0,    0.0,   -0.1,   -0.2,   -0.1,   -0.1,   -0.1,   -0.1,   -0.1,   -0.2,   -0.1,   -0.1,   -0.0,   -0.2,  999.0,  999.0,  999.0,   -0.0,    0.1,    0.1,   -0.0,   -0.0,    0.0,    0.0,    0.0,    0.0,    0.1,    0.0,   -0.0,   -0.0,  999.0,    0.1,    0.0,  999.0,  999.0,  999.0,  999.0,   -0.2,  999.0,    0.1,   -0.1,   -0.1,  999.0,  999.0,  999.0,  999.0,  999.0,  999.0,  999.0,  999.0,  999.0,  999.0,  999.0,  999.0,  999.0,  999.0,  999.0,  999.0,  999.0,  999.0,  999.0,  999.0,  999.0,  999.0,  999.0,  999.0,  999.0,  999.0,  999.0,  999.0,  999.0,  999.0,  999.0,  999.0,  999.0,  999.0,  999.0,  999.0,  999.0,  999.0,  999.0,  999.0,  999.0,  999.0,  999.0,  999.0,  999.0,  999.0,  999.0,  999.0,  999.0
2010/10/28 09:20,   -0.2,   -0.1,   -0.2,   -0.0,   -0.0,   -0.1,   -0.0,   -0.3,   -0.1,   -0.1,   -0.0,   -0.1,   -0.0,   -0.1,   -0.2,   -0.1,   -0.1,   -0.1,   -0.1,   -0.0,   -0.1,  999.0,  999.0,  999.0,    0.1,    0.1,    0.1,   -0.0,    0.0,    0.2,   -0.1,   -0.1,   -0.1,   -0.1,    0.0,   -0.0,  999.0,  999.0,    0.0,   -0.0,  999.0,  999.0,  999.0,  999.0,    0.1,   -0.0,  999.0,   -0.2,  999.0,  999.0,  999.0,  999.0,  999.0,  999.0,  999.0,  999.0,  999.0,  999.0,  999.0,  999.0,  999.0,  999.0,  999.0,  999.0,  999.0,  999.0,  999.0,  999.0,  999.0,  999.0,  999.0,  999.0,  999.0,  999.0,  999.0,  999.0,  999.0,  999.0,  999.0,  999.0,  999.0,  999.0,  999.0,  999.0,  999.0,  999.0,  999.0,  999.0,  999.0,  999.0,  999.0,  999.0,  999.0,  999.0,  999.0,  999.0,  999.0,  999.0
2010/10/28 09:30,   -0.2,   -0.0,    0.2,    0.2,    0.1,    0.1,    0.2,    0.0,   -0.1,    0.1,    0.1,    0.0,  999.0,   -0.3,   -0.3,   -0.2,   -0.3,   -0.3,   -0.3,  999.0,   -0.1,   -0.0,  999.0,   -0.1,    0.0,   -0.1,   -0.1,   -0.0,   -0.2,   -0.2,   -0.0,    0.0,    0.0,    0.1,    0.1,    0.1,  999.0,  999.0,    0.0,   -0.0,  999.0,  999.0,  999.0,  999.0,   -0.1,   -0.0,  999.0,   -0.1,  999.0,  999.0,  999.0,  999.0,  999.0,  999.0,  999.0,  999.0,  999.0,  999.0,  999.0,  999.0,  999.0,  999.0,  999.0,  999.0,  999.0,  999.0,  999.0,  999.0,  999.0,  999.0,  999.0,  999.0,  999.0,  999.0,  999.0,  999.0,  999.0,  999.0,  999.0,  999.0,  999.0,  999.0,  999.0,  999.0,  999.0,  999.0,  999.0,  999.0,  999.0,  999.0,  999.0,  999.0,  999.0,  999.0,  999.0,  999.0,  999.0,  999.0
2010/10/28 09:40,    0.1,    0.3,   -0.0,    0.2,   -0.0,   -0.0,   -0.0,   -0.1,   -0.0,   -0.0,   -0.0,   -0.1,   -0.0,   -0.0,   -0.0,   -0.1,   -0.0,   -0.1,   -0.1,    0.0,  999.0,    0.0,  999.0,  999.0,   -0.0,    0.0,    0.0,    0.0,    0.0,  999.0,   -0.0,  999.0,  999.0,  999.0,    0.1,    0.4,    0.3,  999.0,   -0.1,  999.0,    0.0,  999.0,  999.0,  999.0,  999.0,  999.0,  999.0,  999.0,  999.0,  999.0,  999.0,  999.0,  999.0,  999.0,  999.0,  999.0,  999.0,  999.0,  999.0,  999.0,  999.0,  999.0,  999.0,  999.0,  999.0,  999.0,  999.0,  999.0,  999.0,  999.0,  999.0,  999.0,  999.0,  999.0,  999.0,  999.0,  999.0,  999.0,  999.0,  999.0,  999.0,  999.0,  999.0,  999.0,  999.0,  999.0,  999.0,  999.0,  999.0,  999.0,  999.0,  999.0,  999.0,  999.0,  999.0,  999.0,  999.0,  999.0
2010/10/28 09:50,    0.0,  999.0,  999.0,  999.0,   -0.3,   -0.0,   -0.1,   -0.2,   -0.1,   -0.1,   -0.1,   -0.1,   -0.1,   -0.1,   -0.1,   -0.1,   -0.1,   -0.1,   -0.1,   -0.1,   -0.1,  999.0,   -0.0,  999.0,  999.0,  999.0,   -0.0,    0.0,    0.1,  999.0,  999.0,  999.0,  999.0,  999.0,    0.0,   -0.1,  999.0,  999.0,  999.0,   -0.0,  999.0,  999.0,  999.0,  999.0,  999.0,  999.0,   -0.0,  999.0,  999.0,   -0.1,  999.0,  999.0,  999.0,  999.0,  999.0,  999.0,  999.0,  999.0,  999.0,  999.0,  999.0,  999.0,  999.0,  999.0,  999.0,  999.0,  999.0,  999.0,  999.0,  999.0,  999.0,  999.0,  999.0,  999.0,  999.0,  999.0,  999.0,  999.0,  999.0,  999.0,  999.0,  999.0,  999.0,  999.0,  999.0,  999.0,  999.0,  999.0,  999.0,  999.0,  999.0,  999.0,  999.0,  999.0,  999.0,  999.0,  999.0,  999.0
2010/10/28 10:00,    0.0,    0.3,    0.3,    0.2,    0.2,    0.2,    0.1,   -0.0,   -0.0,   -0.1,   -0.1,   -0.1,   -0.1,   -0.1,   -0.1,   -0.1,   -0.0,    0.0,    0.0,    0.0,   -0.0,    0.1,    0.0,  999.0,  999.0,  999.0,    0.1,    0.2,    0.2,  999.0,  999.0,  999.0,  999.0,  999.0,    0.2,    0.0,    0.0,  999.0,    0.3,  999.0,  999.0,  999.0,  999.0,  999.0,  999.0,    0.0,  999.0,  999.0,   -0.0,  999.0,  999.0,  999.0,  999.0,  999.0,  999.0,  999.0,  999.0,  999.0,  999.0,  999.0,  999.0,  999.0,  999.0,  999.0,   -0.1,  999.0,  999.0,  999.0,  999.0,  999.0,  999.0,  999.0,  999.0,  999.0,  999.0,  999.0,  999.0,  999.0,  999.0,  999.0,  999.0,  999.0,  999.0,  999.0,  999.0,  999.0,  999.0,  999.0,  999.0,  999.0,  999.0,  999.0,  999.0,  999.0,  999.0,  999.0,  999.0,  999.0
2010/10/28 10:10,   -0.1,    0.0,   -0.3,   -0.1,   -0.1,    0.1,    0.2,   -0.0,   -0.1,   -0.0,   -0.1,   -0.1,   -0.1,   -0.1,   -0.1,   -0.1,   -0.0,    0.1,    0.0,    0.0,    0.0,    0.1,    0.0,    0.0,   -0.1,  999.0,    0.0,    0.4,  999.0,    0.1,    0.0,    0.1,  999.0,   -0.0,   -0.0,   -0.2,   -0.2,  999.0,   -0.1,  999.0,  999.0,  999.0,  999.0,  999.0,  999.0,  999.0,  999.0,  999.0,  999.0,  999.0,  999.0,  999.0,  999.0,  999.0,  999.0,  999.0,  999.0,  999.0,  999.0,  999.0,  999.0,  999.0,  999.0,   -0.2,  999.0,  999.0,  999.0,  999.0,  999.0,  999.0,  999.0,  999.0,  999.0,  999.0,  999.0,  999.0,  999.0,  999.0,  999.0,  999.0,  999.0,  999.0,  999.0,  999.0,  999.0,  999.0,  999.0,  999.0,  999.0,  999.0,  999.0,  999.0,  999.0,  999.0,  999.0,  999.0,  999.0,  999.0
2010/10/28 10:20,   -0.0,  999.0,  999.0,    0.3,    0.2,    0.5,    0.4,    0.2,   -0.1,    0.0,    0.0,    0.1,    0.1,    0.0,    0.0,    0.1,    0.1,    0.2,   -0.0,    0.2,    0.1,   -0.0,   -0.1,  999.0,   -0.2,  999.0,  999.0,   -0.1,   -0.1,   -0.1,  999.0,  999.0,  999.0,  999.0,   -0.1,   -0.1,  999.0,  999.0,  999.0,  999.0,  999.0,  999.0,   -0.0,  999.0,  999.0,  999.0,  999.0,  999.0,  999.0,  999.0,  999.0,  999.0,  999.0,  999.0,  999.0,  999.0,    0.1,  999.0,  999.0,  999.0,  999.0,  999.0,  999.0,   -0.1,  999.0,  999.0,  999.0,  999.0,  999.0,  999.0,  999.0,  999.0,  999.0,  999.0,  999.0,  999.0,  999.0,  999.0,  999.0,  999.0,  999.0,  999.0,  999.0,  999.0,  999.0,  999.0,  999.0,  999.0,  999.0,  999.0,  999.0,  999.0,  999.0,  999.0,  999.0,  999.0,  999.0,  999.0
2010/10/28 10:30,    0.1,  999.0,   -0.2,    0.1,    0.3,   -0.0,    0.0,    0.0,   -0.0,   -0.2,   -0.2,   -0.3,   -0.2,   -0.1,   -0.1,   -0.1,   -0.2,   -0.1,   -0.1,  999.0,  999.0,    0.1,   -0.0,    0.0,    0.0,    0.0,    0.0,   -0.1,    0.1,    0.1,    0.1,  999.0,  999.0,  999.0,    0.1,    0.1,  999.0,  999.0,    0.0,    0.1,    0.0,  999.0,  999.0,  999.0,  999.0,  999.0,  999.0,  999.0,  999.0,  999.0,  999.0,  999.0,  999.0,  999.0,  999.0,  999.0,  999.0,  999.0,  999.0,  999.0,    0.1,  999.0,  999.0,  999.0,  999.0,  999.0,  999.0,  999.0,  999.0,  999.0,  999.0,  999.0,  999.0,  999.0,  999.0,  999.0,  999.0,  999.0,  999.0,    0.1,  999.0,  999.0,  999.0,  999.0,  999.0,  999.0,  999.0,  999.0,  999.0,  999.0,  999.0,  999.0,  999.0,  999.0,  999.0,  999.0,  999.0,  999.0
2010/10/28 10:40,    0.0,   -0.3,   -0.2,   -0.2,   -0.2,   -0.4,   -0.4,   -0.4,   -0.5,   -0.4,   -0.2,   -0.4,   -0.1,   -0.2,   -0.1,   -0.4,   -0.4,   -0.4,  999.0,  999.0,    0.0,   -0.0,  999.0,   -0.2,   -0.0,    0.1,   -0.0,  999.0,  999.0,    0.1,    0.2,    0.2,  999.0,   -0.1,  999.0,   -0.0,  999.0,  999.0,    0.1,   -0.0,  999.0,  999.0,  999.0,  999.0,   -0.0,  999.0,  999.0,  999.0,  999.0,  999.0,  999.0,  999.0,  999.0,  999.0,  999.0,  999.0,  999.0,  999.0,  999.0,  999.0,  999.0,  999.0,  999.0,  999.0,  999.0,  999.0,  999.0,  999.0,  999.0,  999.0,  999.0,  999.0,  999.0,  999.0,  999.0,  999.0,  999.0,  999.0,  999.0,  999.0,  999.0,  999.0,  999.0,  999.0,  999.0,  999.0,  999.0,  999.0,  999.0,  999.0,  999.0,    0.2,  999.0,  999.0,  999.0,  999.0,  999.0,  999.0
2010/10/28 10:50,   -0.1,   -0.4,   -0.4,   -0.5,   -0.3,   -0.0,   -0.1,   -0.3,   -0.4,   -0.3,   -0.1,    0.1,   -0.0,    0.0,    0.0,   -0.1,   -0.0,   -0.1,    0.1,  999.0,    0.4,    0.3,    0.1,    0.0,  999.0,  999.0,   -0.2,   -0.2,   -0.3,    0.1,    0.1,   -0.2,   -0.1,   -0.0,  999.0,    0.2,    0.0,  999.0,  999.0,    0.1,    0.2,  999.0,  999.0,  999.0,    0.0,    0.1,  999.0,  999.0,  999.0,  999.0,  999.0,  999.0,  999.0,  999.0,  999.0,  999.0,  999.0,  999.0,  999.0,  999.0,  999.0,  999.0,  999.0,  999.0,  999.0,  999.0,  999.0,  999.0,  999.0,  999.0,  999.0,  999.0,  999.0,  999.0,  999.0,  999.0,  999.0,  999.0,  999.0,  999.0,  999.0,  999.0,  999.0,  999.0,  999.0,  999.0,  999.0,  999.0,  999.0,  999.0,  999.0,  999.0,  999.0,  999.0,  999.0,  999.0,  999.0,  999.0
2010/10/28 11:00,   -0.0,    0.1,   -0.0,   -0.4,   -0.3,   -0.1,    0.1,   -0.3,   -0.2,   -0.0,   -0.0,    0.1,    0.1,    0.1,    0.1,    0.1,    0.1,    0.1,    0.1,  999.0,  999.0,   -0.0,   -0.1,   -0.4,  999.0,  999.0,   -0.1,   -0.0,   -0.1,   -0.1,   -0.1,   -0.0,   -0.1,   -0.1,  999.0,  999.0,  999.0,  999.0,  999.0,    0.2,  999.0,  999.0,  999.0,  999.0,  999.0,    0.1,  999.0,  999.0,  999.0,  999.0,  999.0,  999.0,  999.0,   -0.0,  999.0,  999.0,  999.0,  999.0,  999.0,  999.0,  999.0,  999.0,  999.0,  999.0,  999.0,  999.0,  999.0,  999.0,  999.0,  999.0,  999.0,  999.0,  999.0,  999.0,  999.0,  999.0,  999.0,  999.0,  999.0,  999.0,  999.0,  999.0,  999.0,  999.0,  999.0,  999.0,  999.0,  999.0,  999.0,  999.0,  999.0,  999.0,  999.0,  999.0,  999.0,  999.0,  999.0,  999.0
2010/10/28 11:10,    0.3,    0.9,    1.3,   -0.0,    0.0,   -0.1,    0.2,    0.3,    0.1,    0.2,    0.2,    0.1,    0.3,    0.2,    0.2,    0.2,    0.4,    0.1,    0.2,    0.2,  999.0,   -0.1,   -0.1,  999.0,  999.0,  999.0,  999.0,    0.1,   -0.2,  999.0,   -0.2,   -0.2,   -0.1,   -0.1,  999.0,  999.0,  999.0,  999.0,  999.0,    0.2,  999.0,  999.0,  999.0,  999.0,  999.0,  999.0,  999.0,  999.0,  999.0,  999.0,  999.0,  999.0,  999.0,  999.0,  999.0,  999.0,  999.0,  999.0,  999.0,  999.0,  999.0,  999.0,  999.0,  999.0,  999.0,  999.0,  999.0,  999.0,  999.0,  999.0,  999.0,  999.0,  999.0,  999.0,  999.0,  999.0,  999.0,  999.0,  999.0,  999.0,  999.0,  999.0,  999.0,  999.0,  999.0,  999.0,  999.0,  999.0,  999.0,  999.0,  999.0,  999.0,  999.0,  999.0,  999.0,  999.0,  999.0,  999.0
2010/10/28 11:20,    0.0,   -0.4,   -0.2,   -1.0,   -0.4,   -0.0,    0.3,    0.2,    0.4,    0.3,    0.5,    0.8,    0.6,    0.5,    0.5,    0.4,    0.8,    0.3,    0.2,  999.0,    0.1,   -0.1,   -0.1,  999.0,  999.0,  999.0,  999.0,   -0.2,   -0.1,  999.0,   -0.2,   -0.2,  999.0,   -0.2,  999.0,   -0.3,   -0.3,  999.0,  999.0,  999.0,   -0.2,  999.0,  999.0,  999.0,  999.0,  999.0,  999.0,  999.0,  999.0,  999.0,  999.0,  999.0,  999.0,  999.0,  999.0,  999.0,  999.0,  999.0,  999.0,  999.0,  999.0,  999.0,  999.0,  999.0,  999.0,  999.0,  999.0,  999.0,  999.0,  999.0,  999.0,  999.0,  999.0,  999.0,  999.0,  999.0,  999.0,  999.0,  999.0,  999.0,  999.0,  999.0,  999.0,  999.0,  999.0,  999.0,  999.0,  999.0,  999.0,  999.0,  999.0,  999.0,  999.0,  999.0,  999.0,  999.0,  999.0,  999.0
2010/10/28 11:30,    0.0,    0.0,    0.1,   -0.3,   -0.2,   -0.0,   -0.2,   -0.2,    0.1,   -0.1,   -0.4,   -0.2,   -0.1,   -0.1,   -0.1,    0.0,  999.0,   -0.0,    0.1,    0.1,    0.1,    0.0,    0.1,    0.1,   -0.0,  999.0,  999.0,  999.0,  999.0,  999.0,  999.0,   -0.2,   -0.1,  999.0,  999.0,    0.1,    0.1,  999.0,  999.0,  999.0,  999.0,  999.0,  999.0,  999.0,  999.0,  999.0,  999.0,  999.0,  999.0,  999.0,  999.0,  999.0,  999.0,  999.0,  999.0,  999.0,  999.0,  999.0,  999.0,  999.0,  999.0,  999.0,  999.0,  999.0,  999.0,  999.0,  999.0,  999.0,  999.0,  999.0,  999.0,  999.0,  999.0,  999.0,  999.0,  999.0,  999.0,  999.0,  999.0,  999.0,  999.0,  999.0,  999.0,  999.0,  999.0,  999.0,  999.0,  999.0,  999.0,  999.0,  999.0,  999.0,  999.0,  999.0,  999.0,  999.0,  999.0,  999.0
2010/10/28 11:40,   -0.1,   -0.1,   -0.4,   -0.3,   -0.2,   -0.3,   -0.1,    0.0,    0.2,    0.0,    0.1,    0.2,    0.1,    0.2,    0.2,    0.2,    0.1,    0.2,    0.2,    0.1,    0.0,    0.2,  999.0,  999.0,  999.0,   -0.0,    0.1,  999.0,  999.0,  999.0,  999.0,  999.0,   -0.0,  999.0,  999.0,    0.1,    0.1,    0.2,  999.0,  999.0,  999.0,  999.0,  999.0,  999.0,  999.0,  999.0,  999.0,  999.0,  999.0,  999.0,  999.0,  999.0,  999.0,  999.0,  999.0,  999.0,  999.0,  999.0,  999.0,  999.0,  999.0,  999.0,  999.0,  999.0,  999.0,  999.0,  999.0,  999.0,  999.0,  999.0,  999.0,  999.0,  999.0,  999.0,  999.0,  999.0,  999.0,  999.0,  999.0,  999.0,  999.0,  999.0,  999.0,  999.0,  999.0,  999.0,  999.0,  999.0,  999.0,  999.0,  999.0,  999.0,  999.0,  999.0,  999.0,  999.0,  999.0,  999.0
2010/10/28 11:50,   -0.0,   -0.2,    0.2,   -0.1,   -0.3,   -0.1,    0.2,    0.1,    0.1,    0.0,    0.1,    0.1,    0.1,    0.0,    0.0,    0.0,   -0.1,  999.0,   -0.0,    0.0,    0.1,   -0.0,  999.0,    0.1,  999.0,    0.2,   -0.1,   -0.3,  999.0,  999.0,  999.0,  999.0,  999.0,  999.0,  999.0,    0.1,    0.2,    0.0,   -0.0,  999.0,  999.0,  999.0,  999.0,  999.0,  999.0,  999.0,  999.0,  999.0,  999.0,  999.0,  999.0,  999.0,  999.0,  999.0,  999.0,  999.0,  999.0,  999.0,  999.0,  999.0,  999.0,  999.0,  999.0,  999.0,  999.0,  999.0,  999.0,  999.0,  999.0,  999.0,  999.0,  999.0,  999.0,  999.0,  999.0,  999.0,  999.0,  999.0,  999.0,  999.0,  999.0,  999.0,  999.0,  999.0,  999.0,  999.0,  999.0,  999.0,  999.0,  999.0,  999.0,  999.0,  999.0,  999.0,  999.0,  999.0,  999.0,  999.0
2010/10/28 12:00,   -0.1,   -0.7,   -0.6,   -0.8,   -0.6,   -0.7,   -0.5,   -0.6,   -0.4,   -0.4,   -0.3,   -0.2,   -0.1,   -0.0,   -0.0,   -0.1,   -0.2,    0.2,    0.1,   -0.0,   -0.2,    0.1,    0.1,   -0.1,  999.0,  999.0,    0.1,    0.0,  999.0,  999.0,  999.0,  999.0,  999.0,  999.0,  999.0,    0.2,    0.1,    0.3,    0.1,  999.0,  999.0,  999.0,  999.0,  999.0,    0.0,  999.0,  999.0,  999.0,  999.0,  999.0,  999.0,  999.0,  999.0,  999.0,  999.0,  999.0,  999.0,  999.0,  999.0,  999.0,  999.0,  999.0,  999.0,  999.0,  999.0,  999.0,  999.0,  999.0,  999.0,  999.0,  999.0,  999.0,  999.0,  999.0,  999.0,  999.0,  999.0,  999.0,  999.0,  999.0,  999.0,  999.0,  999.0,  999.0,  999.0,  999.0,  999.0,  999.0,  999.0,  999.0,  999.0,  999.0,  999.0,  999.0,  999.0,  999.0,  999.0,  999.0
2010/10/28 12:10,   -0.2,    0.0,    0.0,   -0.1,   -0.1,   -0.4,   -0.2,   -0.2,   -0.1,   -0.1,    0.1,    0.0,   -0.0,   -0.0,   -0.0,    0.0,   -0.1,  999.0,    0.3,    0.2,    0.2,    0.4,  999.0,  999.0,  999.0,  999.0,  999.0,  999.0,  999.0,  999.0,    0.0,  999.0,  999.0,   -0.3,  999.0,   -0.1,   -0.0,   -0.0,    0.1,    0.2,  999.0,  999.0,  999.0,  999.0,  999.0,  999.0,  999.0,  999.0,  999.0,  999.0,  999.0,  999.0,  999.0,  999.0,  999.0,  999.0,  999.0,  999.0,  999.0,  999.0,  999.0,  999.0,  999.0,  999.0,  999.0,  999.0,  999.0,  999.0,  999.0,  999.0,  999.0,  999.0,  999.0,  999.0,  999.0,  999.0,  999.0,  999.0,  999.0,  999.0,  999.0,  999.0,  999.0,  999.0,  999.0,  999.0,  999.0,  999.0,  999.0,  999.0,  999.0,  999.0,  999.0,  999.0,  999.0,  999.0,  999.0,  999.0
2010/10/28 12:20,   -0.0,   -0.0,   -0.1,   -0.1,   -0.1,   -0.2,   -0.3,   -0.0,    0.0,    0.1,   -0.1,    0.1,   -0.0,    0.0,    0.0,    0.1,    0.2,    0.1,  999.0,    0.2,    0.2,  999.0,   -0.0,  999.0,  999.0,  999.0,    0.2,  999.0,  999.0,  999.0,  999.0,  999.0,  999.0,  999.0,  999.0,  999.0,  999.0,   -0.1,    0.0,    0.1,    0.1,  999.0,    0.1,   -0.0,  999.0,  999.0,  999.0,  999.0,  999.0,  999.0,  999.0,  999.0,  999.0,  999.0,  999.0,  999.0,  999.0,  999.0,  999.0,  999.0,  999.0,  999.0,  999.0,  999.0,  999.0,  999.0,  999.0,  999.0,  999.0,  999.0,  999.0,  999.0,  999.0,  999.0,  999.0,  999.0,  999.0,  999.0,  999.0,  999.0,  999.0,  999.0,  999.0,  999.0,  999.0,  999.0,  999.0,  999.0,  999.0,  999.0,  999.0,  999.0,  999.0,  999.0,  999.0,  999.0,  999.0,  999.0
2010/10/28 12:30,    0.0,    0.4,   -0.0,    0.1,   -0.1,   -0.0,   -0.1,   -0.0,   -0.1,   -0.0,    0.1,    0.1,    0.0,    0.0,   -0.0,   -0.0,   -0.0,   -0.0,    0.0,    0.0,    0.1,  999.0,  999.0,  999.0,  999.0,  999.0,    0.0,    0.0,  999.0,  999.0,  999.0,  999.0,  999.0,  999.0,  999.0,   -0.3,  999.0,   -0.1,   -0.0,   -0.1,  999.0,  999.0,  999.0,  999.0,  999.0,  999.0,  999.0,  999.0,  999.0,  999.0,  999.0,  999.0,  999.0,  999.0,  999.0,  999.0,  999.0,   -0.3,  999.0,  999.0,  999.0,  999.0,  999.0,  999.0,  999.0,  999.0,  999.0,  999.0,  999.0,  999.0,  999.0,  999.0,  999.0,  999.0,  999.0,  999.0,  999.0,  999.0,  999.0,  999.0,  999.0,  999.0,  999.0,  999.0,  999.0,  999.0,  999.0,  999.0,  999.0,  999.0,  999.0,  999.0,   -0.2,  999.0,  999.0,  999.0,  999.0,  999.0
2010/10/28 12:40,   -0.0,   -0.1,   -0.1,   -0.2,   -0.4,   -0.1,   -0.1,    0.0,    0.1,    0.1,    0.1,    0.1,    0.0,    0.0,   -0.0,    0.0,    0.1,    0.0,   -0.0,    0.1,   -0.2,  999.0,  999.0,  999.0,  999.0,  999.0,  999.0,    0.1,  999.0,  999.0,  999.0,  999.0,  999.0,  999.0,  999.0,   -0.1,  999.0,    0.1,    0.1,    0.0,  999.0,  999.0,  999.0,  999.0,  999.0,  999.0,  999.0,  999.0,  999.0,  999.0,  999.0,  999.0,  999.0,  999.0,  999.0,  999.0,  999.0,  999.0,  999.0,  999.0,  999.0,  999.0,  999.0,  999.0,  999.0,  999.0,  999.0,  999.0,  999.0,  999.0,  999.0,  999.0,  999.0,  999.0,  999.0,  999.0,  999.0,  999.0,  999.0,  999.0,  999.0,  999.0,  999.0,  999.0,  999.0,  999.0,  999.0,  999.0,  999.0,  999.0,  999.0,  999.0,  999.0,  999.0,  999.0,  999.0,  999.0,  999.0
2010/10/28 12:50,   -0.0,   -0.1,   -0.2,   -0.3,   -0.2,    0.1,    0.0,    0.0,    0.0,    0.0,    0.0,    0.0,    0.0,    0.0,    0.0,    0.1,    0.1,    0.2,    0.2,    0.2,    0.2,  999.0,  999.0,  999.0,  999.0,    0.0,  999.0,  999.0,  999.0,  999.0,   -0.1,  999.0,  999.0,  999.0,  999.0,  999.0,  999.0,  999.0,   -0.1,    0.0,  999.0,  999.0,  999.0,  999.0,   -0.1,  999.0,  999.0,  999.0,  999.0,  999.0,  999.0,  999.0,  999.0,  999.0,  999.0,  999.0,  999.0,  999.0,  999.0,  999.0,  999.0,  999.0,  999.0,  999.0,  999.0,  999.0,  999.0,  999.0,  999.0,  999.0,  999.0,  999.0,  999.0,  999.0,  999.0,  999.0,  999.0,  999.0,  999.0,  999.0,  999.0,  999.0,  999.0,  999.0,  999.0,  999.0,  999.0,  999.0,  999.0,  999.0,  999.0,  999.0,  999.0,  999.0,  999.0,  999.0,  999.0,  999.0
2010/10/28 13:00,   -0.0,   -0.1,   -0.2,   -0.2,    0.0,    0.1,    0.1,    0.0,    0.0,    0.0,   -0.0,   -0.0,    0.0,   -0.0,   -0.0,   -0.1,   -0.0,    0.0,  999.0,  999.0,   -0.1,  999.0,  999.0,  999.0,  999.0,  999.0,  999.0,  999.0,  999.0,  999.0,   -0.1,  999.0,  999.0,  999.0,  999.0,  999.0,  999.0,    0.1,    0.0,    0.0,  999.0,  999.0,  999.0,  999.0,  999.0,  999.0,  999.0,  999.0,  999.0,  999.0,  999.0,  999.0,  999.0,  999.0,  999.0,  999.0,  999.0,  999.0,  999.0,  999.0,  999.0,  999.0,  999.0,  999.0,  999.0,  999.0,  999.0,  999.0,  999.0,  999.0,  999.0,  999.0,  999.0,  999.0,  999.0,  999.0,  999.0,  999.0,  999.0,  999.0,  999.0,  999.0,  999.0,  999.0,  999.0,  999.0,  999.0,  999.0,  999.0,  999.0,  999.0,  999.0,  999.0,  999.0,  999.0,  999.0,  999.0,  999.0
2010/10/28 13:10,   -0.0,   -0.2,   -0.2,   -0.3,    0.0,   -0.1,   -0.1,    0.0,    0.1,    0.0,   -0.0,   -0.0,   -0.0,   -0.0,   -0.1,   -0.1,   -0.1,    0.1,   -0.0,    0.1,  999.0,  999.0,  999.0,  999.0,  999.0,  999.0,  999.0,  999.0,  999.0,  999.0,  999.0,    0.2,  999.0,  999.0,  999.0,  999.0,  999.0,  999.0,  999.0,   -0.0,  999.0,  999.0,  999.0,  999.0,  999.0,  999.0,  999.0,  999.0,  999.0,  999.0,  999.0,  999.0,  999.0,  999.0,  999.0,   -0.3,  999.0,  999.0,  999.0,  999.0,  999.0,  999.0,  999.0,  999.0,  999.0,  999.0,  999.0,  999.0,  999.0,  999.0,  999.0,  999.0,  999.0,  999.0,  999.0,  999.0,  999.0,  999.0,  999.0,  999.0,  999.0,  999.0,  999.0,  999.0,  999.0,  999.0,  999.0,  999.0,  999.0,  999.0,  999.0,  999.0,  999.0,  999.0,  999.0,  999.0,  999.0,  999.0
2010/10/28 13:20,   -0.1,   -0.1,   -0.2,   -0.2,   -0.1,   -0.1,   -0.0,    0.1,    0.1,    0.0,    0.0,    0.1,    0.1,    0.0,   -0.0,    0.0,    0.0,    0.1,    0.0,    0.0,    0.0,  999.0,    0.1,  999.0,  999.0,  999.0,    0.3,  999.0,  999.0,  999.0,  999.0,  999.0,  999.0,  999.0,  999.0,  999.0,  999.0,  999.0,  999.0,  999.0,  999.0,  999.0,  999.0,  999.0,  999.0,  999.0,  999.0,  999.0,  999.0,  999.0,  999.0,  999.0,  999.0,  999.0,  999.0,  999.0,  999.0,  999.0,  999.0,  999.0,  999.0,  999.0,  999.0,  999.0,  999.0,  999.0,  999.0,  999.0,  999.0,  999.0,  999.0,  999.0,  999.0,  999.0,  999.0,  999.0,  999.0,  999.0,  999.0,  999.0,  999.0,  999.0,  999.0,  999.0,  999.0,  999.0,  999.0,  999.0,  999.0,  999.0,  999.0,  999.0,  999.0,  999.0,  999.0,  999.0,  999.0,  999.0
2010/10/28 13:30,   -0.2,    0.0,   -0.1,   -0.2,   -0.1,   -0.1,   -0.2,   -0.2,   -0.0,   -0.0,   -0.1,    0.0,    0.0,   -0.0,   -0.0,    0.0,    0.0,    0.0,    0.0,    0.0,   -0.0,  999.0,  999.0,    0.0,   -0.1,    0.2,    0.1,  999.0,  999.0,  999.0,  999.0,  999.0,  999.0,  999.0,  999.0,  999.0,  999.0,  999.0,  999.0,  999.0,  999.0,  999.0,  999.0,  999.0,  999.0,  999.0,  999.0,  999.0,  999.0,  999.0,  999.0,  999.0,  999.0,  999.0,  999.0,  999.0,  999.0,  999.0,  999.0,  999.0,  999.0,  999.0,  999.0,  999.0,  999.0,  999.0,  999.0,  999.0,  999.0,  999.0,  999.0,  999.0,  999.0,  999.0,  999.0,  999.0,  999.0,  999.0,  999.0,  999.0,  999.0,  999.0,  999.0,  999.0,  999.0,  999.0,  999.0,  999.0,  999.0,  999.0,  999.0,  999.0,  999.0,  999.0,  999.0,  999.0,  999.0,  999.0
2010/10/28 13:40,   -0.0,   -0.1,   -0.3,   -0.4,   -0.4,   -0.1,   -0.1,    0.0,    0.1,    0.0,    0.1,    0.0,    0.1,    0.1,    0.0,    0.2,    0.1,    0.2,    0.2,    0.2,    0.3,  999.0,    0.3,    0.2,    0.4,    0.2,    0.3,    0.3,  999.0,    0.3,  999.0,  999.0,    0.3,  999.0,    0.2,  999.0,  999.0,  999.0,    0.1,    0.1,  999.0,  999.0,  999.0,  999.0,  999.0,  999.0,  999.0,  999.0,  999.0,  999.0,  999.0,  999.0,  999.0,  999.0,  999.0,  999.0,  999.0,  999.0,  999.0,  999.0,  999.0,  999.0,  999.0,  999.0,  999.0,  999.0,  999.0,  999.0,  999.0,  999.0,  999.0,  999.0,  999.0,  999.0,  999.0,  999.0,  999.0,  999.0,  999.0,  999.0,  999.0,  999.0,  999.0,  999.0,  999.0,  999.0,  999.0,  999.0,  999.0,  999.0,  999.0,  999.0,  999.0,  999.0,  999.0,  999.0,  999.0,  999.0
2010/10/28 13:50,    0.0,   -0.1,   -0.3,   -0.4,   -0.5,   -0.4,   -0.4,   -0.2,   -0.1,   -0.1,    0.0,    0.1,    0.0,    0.0,    0.0,   -0.1,   -0.0,   -0.2,   -0.1,   -0.1,    0.0,  999.0,  999.0,   -0.1,    0.0,  999.0,  999.0,  999.0,  999.0,    0.2,  999.0,  999.0,  999.0,  999.0,  999.0,  999.0,  999.0,  999.0,  999.0,   -0.2,   -0.0,  999.0,  999.0,   -0.3,  999.0,  999.0,  999.0,  999.0,  999.0,  999.0,  999.0,  999.0,  999.0,  999.0,  999.0,  999.0,  999.0,  999.0,  999.0,  999.0,  999.0,  999.0,  999.0,  999.0,  999.0,  999.0,  999.0,  999.0,  999.0,  999.0,  999.0,  999.0,  999.0,  999.0,  999.0,  999.0,  999.0,  999.0,  999.0,  999.0,  999.0,  999.0,  999.0,  999.0,  999.0,  999.0,  999.0,  999.0,  999.0,  999.0,  999.0,  999.0,  999.0,  999.0,  999.0,  999.0,  999.0,  999.0
2010/10/28 14:00,   -0.0,   -0.1,   -0.1,   -0.1,   -0.2,    0.0,    0.1,    0.0,   -0.1,   -0.0,   -0.1,   -0.1,   -0.1,   -0.1,   -0.1,   -0.1,   -0.2,   -0.1,    0.1,    0.1,    0.1,    0.3,  999.0,    0.3,  999.0,  999.0,  999.0,  999.0,  999.0,  999.0,  999.0,  999.0,  999.0,  999.0,  999.0,    0.1,  999.0,  999.0,    0.0,   -0.1,  999.0,  999.0,  999.0,  999.0,  999.0,  999.0,  999.0,  999.0,  999.0,  999.0,  999.0,  999.0,  999.0,  999.0,  999.0,  999.0,  999.0,  999.0,  999.0,  999.0,  999.0,  999.0,  999.0,  999.0,  999.0,  999.0,  999.0,  999.0,  999.0,  999.0,  999.0,  999.0,  999.0,  999.0,  999.0,  999.0,  999.0,  999.0,  999.0,  999.0,  999.0,  999.0,  999.0,  999.0,  999.0,  999.0,  999.0,  999.0,  999.0,  999.0,  999.0,  999.0,  999.0,  999.0,  999.0,  999.0,  999.0,  999.0
2010/10/28 14:10,  999.0,   -0.0,   -0.1,   -0.1,   -0.1,   -0.1,   -0.1,    0.1,    0.1,    0.0,    0.1,    0.2,    0.0,    0.1,    0.0,    0.2,   -0.2,  999.0,   -0.0,    0.1,    0.0,   -0.0,  999.0,  999.0,    0.5,  999.0,  999.0,  999.0,  999.0,  999.0,  999.0,  999.0,  999.0,  999.0,  999.0,  999.0,  999.0,  999.0,  999.0,  999.0,  999.0,  999.0,   -0.0,  999.0,  999.0,  999.0,  999.0,  999.0,    0.0,  999.0,  999.0,  999.0,  999.0,  999.0,  999.0,  999.0,  999.0,  999.0,  999.0,  999.0,  999.0,  999.0,  999.0,  999.0,  999.0,  999.0,  999.0,  999.0,  999.0,  999.0,  999.0,  999.0,  999.0,  999.0,  999.0,  999.0,  999.0,  999.0,  999.0,  999.0,  999.0,  999.0,  999.0,  999.0,  999.0,  999.0,  999.0,  999.0,  999.0,  999.0,  999.0,  999.0,  999.0,  999.0,  999.0,  999.0,  999.0,  999.0
2010/10/28 14:20,   -0.1,    0.0,  999.0,   -0.2,   -0.2,   -0.2,   -0.1,   -0.1,   -0.1,   -0.0,    0.1,   -0.1,   -0.1,   -0.0,    0.0,    0.0,    0.0,   -0.0,    0.0,   -0.0,   -0.0,   -0.1,   -0.2,   -0.1,  999.0,  999.0,  999.0,  999.0,  999.0,  999.0,  999.0,  999.0,  999.0,  999.0,    0.0,    0.1,  999.0,    0.2,  999.0,  999.0,  999.0,  999.0,   -0.2,  999.0,  999.0,  999.0,  999.0,  999.0,  999.0,  999.0,  999.0,  999.0,  999.0,  999.0,  999.0,  999.0,  999.0,  999.0,  999.0,  999.0,  999.0,  999.0,  999.0,  999.0,  999.0,  999.0,  999.0,  999.0,  999.0,  999.0,  999.0,  999.0,  999.0,  999.0,  999.0,  999.0,  999.0,  999.0,  999.0,  999.0,  999.0,  999.0,  999.0,  999.0,  999.0,  999.0,  999.0,  999.0,  999.0,  999.0,  999.0,  999.0,  999.0,  999.0,  999.0,  999.0,  999.0,  999.0
2010/10/28 14:30,  999.0,   -0.0,   -0.1,   -0.1,    0.0,    0.0,    0.0,    0.1,    0.1,   -0.1,   -0.0,   -0.0,   -0.1,   -0.4,   -0.3,   -0.4,   -0.4,   -0.5,   -0.5,   -0.4,   -0.4,   -0.3,   -0.3,   -0.2,   -0.0,    0.1,  999.0,  999.0,  999.0,  999.0,  999.0,  999.0,   -0.1,   -0.2,    0.1,  999.0,  999.0,    0.1,  999.0,  999.0,  999.0,  999.0,  999.0,  999.0,  999.0,  999.0,  999.0,  999.0,  999.0,  999.0,  999.0,  999.0,  999.0,  999.0,  999.0,  999.0,  999.0,  999.0,  999.0,  999.0,  999.0,  999.0,  999.0,  999.0,  999.0,  999.0,  999.0,  999.0,  999.0,  999.0,  999.0,  999.0,  999.0,  999.0,  999.0,  999.0,  999.0,  999.0,  999.0,  999.0,  999.0,  999.0,  999.0,  999.0,  999.0,  999.0,  999.0,  999.0,  999.0,  999.0,    2.0,  999.0,  999.0,  999.0,  999.0,    2.0,  999.0,    2.0
2010/10/28 14:40,  999.0,   -0.0,   -0.1,   -0.1,   -0.1,   -0.2,   -0.1,   -0.2,   -0.2,   -0.1,   -0.2,   -0.2,   -0.2,   -0.1,    0.0,    0.2,    0.1,   -0.2,   -0.1,    0.0,    0.1,    0.0,    0.1,    0.1,    0.2,    0.1,    0.0,    0.2,  999.0,  999.0,  999.0,  999.0,  999.0,   -0.3,   -0.0,  999.0,  999.0,  999.0,    0.0,  999.0,  999.0,  999.0,  999.0,  999.0,  999.0,  999.0,  999.0,  999.0,  999.0,  999.0,  999.0,  999.0,  999.0,  999.0,  999.0,  999.0,  999.0,  999.0,  999.0,  999.0,  999.0,  999.0,  999.0,  999.0,  999.0,  999.0,  999.0,  999.0,  999.0,  999.0,  999.0,  999.0,  999.0,  999.0,  999.0,  999.0,  999.0,  999.0,  999.0,  999.0,  999.0,  999.0,  999.0,  999.0,  999.0,  999.0,  999.0,  999.0,  999.0,  999.0,  999.0,  999.0,  999.0,  999.0,  999.0,  999.0,  999.0,  999.0
2010/10/28 14:50,   -0.9,   -0.8,   -0.8,   -0.7,   -0.3,   -0.2,   -0.3,   -0.3,   -0.1,   -0.1,   -0.3,   -0.3,   -0.5,   -0.5,   -0.5,   -0.4,   -0.6,   -0.7,   -0.5,   -0.3,   -0.5,   -0.3,   -0.2,   -0.3,   -0.2,   -0.1,    0.1,    0.1,    0.0,   -0.9,   -0.4,   -0.2,  999.0,  999.0,   -0.1,    0.1,    0.1,  999.0,  999.0,    0.1,  999.0,  999.0,  999.0,  999.0,  999.0,  999.0,  999.0,  999.0,  999.0,  999.0,  999.0,  999.0,  999.0,  999.0,  999.0,  999.0,  999.0,  999.0,  999.0,  999.0,  999.0,  999.0,  999.0,  999.0,  999.0,  999.0,  999.0,  999.0,  999.0,  999.0,  999.0,  999.0,  999.0,  999.0,  999.0,  999.0,  999.0,  999.0,  999.0,  999.0,  999.0,  999.0,  999.0,  999.0,  999.0,  999.0,  999.0,  999.0,  999.0,  999.0,  999.0,  999.0,  999.0,  999.0,  999.0,  999.0,  999.0,  999.0
2010/10/28 15:00,   -5.1,   -5.2,   -5.5,   -5.4,   -5.3,   -5.3,   -5.3,   -5.3,   -4.9,   -4.8,   -4.1,   -4.4,   -4.7,   -5.2,   -5.1,   -4.6,   -4.7,   -4.6,   -4.5,   -4.5,   -4.1,   -4.0,   -3.5,   -3.0,   -3.0,   -2.3,   -1.9,   -2.0,   -1.2,   -1.0,   -1.7,   -1.9,   -1.3,   -1.2,   -0.5,   -0.9,   -0.5,   -0.7,   -0.4,   -0.3,  999.0,  999.0,  999.0,  999.0,  999.0,  999.0,  999.0,  999.0,  999.0,  999.0,  999.0,  999.0,  999.0,  999.0,  999.0,  999.0,  999.0,  999.0,  999.0,  999.0,  999.0,  999.0,  999.0,  999.0,  999.0,  999.0,  999.0,  999.0,  999.0,  999.0,  999.0,  999.0,  999.0,  999.0,  999.0,  999.0,  999.0,  999.0,  999.0,  999.0,  999.0,  999.0,  999.0,  999.0,  999.0,  999.0,  999.0,  999.0,  999.0,  999.0,  999.0,  999.0,  999.0,  999.0,  999.0,  999.0,  999.0,  999.0
2010/10/28 15:10,   -0.0,    0.0,   -0.1,   -0.1,   -0.1,   -0.0,   -0.1,   -0.1,   -0.0,   -0.0,   -0.0,    0.1,    0.2,    0.2,    0.1,    0.1,    0.1,    0.1,    0.1,    0.1,    0.0,   -0.1,   -0.0,    0.0,   -0.8,   -0.8,   -0.6,   -0.8,    0.1,    0.1,   -3.0,   -2.9,   -3.3,   -3.5,   -3.1,   -2.7,   -2.7,   -2.5,   -1.9,   -1.9,   -1.8,   -1.5,   -1.2,   -0.8,  999.0,  999.0,  999.0,  999.0,   -0.4,   -0.2,  999.0,  999.0,  999.0,  999.0,  999.0,  999.0,  999.0,  999.0,  999.0,  999.0,  999.0,  999.0,  999.0,  999.0,  999.0,  999.0,  999.0,  999.0,  999.0,  999.0,  999.0,  999.0,  999.0,  999.0,  999.0,  999.0,  999.0,  999.0,  999.0,  999.0,  999.0,  999.0,  999.0,  999.0,  999.0,  999.0,  999.0,  999.0,  999.0,  999.0,  999.0,  999.0,  999.0,  999.0,  999.0,  999.0,  999.0,  999.0
2010/10/28 15:20,    0.0,   -0.0,   -0.0,   -0.1,   -0.1,   -0.1,   -0.1,   -0.0,    0.0,    0.0,    0.1,    0.1,   -0.0,    0.1,    0.0,    0.0,   -0.0,    0.1,    0.1,    0.1,   -0.1,    0.0,    0.0,   -0.0,   -0.2,   -0.0,    0.1,   -0.0,   -0.0,   -0.0,   -0.1,   -0.2,   -0.1,    0.1,    0.0,  999.0,   -0.4,  999.0,   -2.3,   -2.6,   -2.7,   -2.6,   -2.4,   -2.0,   -1.9,   -1.7,   -1.1,   -1.0,   -0.6,   -0.6,   -0.4,  999.0,  999.0,  999.0,  999.0,  999.0,  999.0,  999.0,  999.0,  999.0,  999.0,  999.0,  999.0,  999.0,  999.0,  999.0,  999.0,  999.0,  999.0,  999.0,  999.0,  999.0,  999.0,  999.0,  999.0,  999.0,  999.0,  999.0,  999.0,  999.0,  999.0,  999.0,  999.0,  999.0,  999.0,  999.0,  999.0,  999.0,  999.0,  999.0,  999.0,  999.0,  999.0,  999.0,  999.0,  999.0,  999.0,  999.0
2010/10/28 15:30,  999.0,    0.0,   -0.1,    0.0,   -0.0,   -0.0,   -0.0,   -0.0,   -0.0,    0.0,   -0.0,   -0.1,   -0.1,   -0.0,   -0.0,   -0.2,   -0.1,   -0.1,   -0.2,   -0.1,   -0.2,   -0.2,   -0.1,   -0.1,   -0.1,   -0.1,   -0.1,   -0.2,   -0.2,   -0.1,   -0.0,   -0.1,   -0.2,   -0.1,   -0.2,   -0.2,   -0.1,   -0.5,  999.0,   -0.4,   -0.4,   -0.4,   -0.8,   -0.8,   -0.6,   -0.4,   -0.5,   -0.2,   -0.2,  999.0,  999.0,  999.0,  999.0,  999.0,  999.0,   -0.1,   -0.1,  999.0,  999.0,  999.0,  999.0,  999.0,  999.0,  999.0,  999.0,  999.0,  999.0,  999.0,  999.0,  999.0,  999.0,  999.0,  999.0,  999.0,  999.0,  999.0,  999.0,  999.0,  999.0,  999.0,  999.0,  999.0,  999.0,  999.0,  999.0,  999.0,  999.0,  999.0,  999.0,  999.0,  999.0,  999.0,  999.0,  999.0,  999.0,  999.0,  999.0,  999.0
2010/10/28 15:40,  999.0,    0.1,    0.0,   -0.0,    0.0,   -0.0,    0.0,    0.0,    0.0,    0.0,    0.0,    0.0,   -0.0,    0.0,    0.1,    0.1,    0.1,    0.1,   -0.0,   -0.0,   -0.1,   -0.1,   -0.1,    0.0,    0.0,   -0.1,   -0.1,   -0.2,   -0.0,   -0.1,   -0.2,   -0.2,   -0.3,   -0.4,   -0.5,   -0.4,   -0.4,   -0.4,   -0.5,   -0.3,   -0.1,    0.1,    0.1,   -0.0,   -0.2,    0.0,   -0.0,   -0.1,  999.0,  999.0,  999.0,  999.0,  999.0,  999.0,  999.0,    0.1,  999.0,  999.0,  999.0,  999.0,  999.0,  999.0,  999.0,  999.0,  999.0,  999.0,  999.0,  999.0,  999.0,  999.0,  999.0,  999.0,  999.0,  999.0,  999.0,  999.0,  999.0,  999.0,  999.0,  999.0,    0.3,  999.0,  999.0,  999.0,  999.0,  999.0,  999.0,  999.0,  999.0,  999.0,  999.0,  999.0,  999.0,  999.0,  999.0,  999.0,  999.0,  999.0
2010/10/28 15:50,  999.0,   -0.1,   -0.1,   -0.0,   -0.1,   -0.0,   -0.0,   -0.0,   -0.0,    0.0,    0.0,   -0.1,   -0.1,    0.0,    0.0,    0.2,    0.1,   -0.0,    0.1,    0.1,    0.1,    0.1,   -0.1,   -0.0,    0.2,    0.2,    0.2,    0.1,    0.0,    0.1,    0.2,    0.1,   -0.0,   -0.1,   -0.2,   -0.2,   -0.1,   -0.1,   -0.1,    0.0,    0.0,    0.0,    0.0,    0.1,  999.0,    0.4,    0.0,    0.1,  999.0,  999.0,  999.0,  999.0,  999.0,  999.0,  999.0,  999.0,  999.0,  999.0,  999.0,  999.0,  999.0,  999.0,  999.0,  999.0,  999.0,  999.0,  999.0,  999.0,  999.0,  999.0,  999.0,  999.0,  999.0,  999.0,  999.0,  999.0,  999.0,  999.0,  999.0,  999.0,  999.0,  999.0,  999.0,  999.0,  999.0,  999.0,  999.0,  999.0,  999.0,  999.0,  999.0,  999.0,  999.0,  999.0,  999.0,  999.0,  999.0,  999.0
2010/10/28 16:00,  999.0,   -0.0,   -0.1,   -0.0,   -0.0,    0.1,    0.1,    0.0,    0.0,    0.0,   -0.0,   -0.0,   -0.1,   -0.1,   -0.1,   -0.0,    0.0,    0.0,   -0.0,    0.0,    0.1,    0.1,    0.1,    0.2,    0.3,    0.2,    0.2,    0.3,    0.4,    0.4,    0.1,    0.2,    0.3,    0.3,    0.2,    0.4,    0.4,    0.2,    0.1,    0.2,    0.2,    0.1,    0.1,    0.2,  999.0,    0.1,    0.1,    0.2,    0.3,  999.0,  999.0,  999.0,  999.0,  999.0,  999.0,  999.0,  999.0,  999.0,  999.0,  999.0,  999.0,  999.0,    0.2,  999.0,  999.0,  999.0,  999.0,  999.0,  999.0,  999.0,  999.0,  999.0,  999.0,  999.0,  999.0,  999.0,  999.0,  999.0,  999.0,  999.0,  999.0,    0.2,  999.0,  999.0,  999.0,  999.0,  999.0,   -0.4,  999.0,  999.0,  999.0,  999.0,  999.0,  999.0,  999.0,  999.0,  999.0,  999.0
2010/10/28 16:10,   -0.0,    0.0,    0.0,    0.2,    0.0,   -0.0,   -0.1,   -0.1,   -0.1,   -0.1,   -0.1,   -0.1,   -0.1,   -0.1,   -0.1,   -0.2,   -0.2,   -0.1,   -0.1,   -0.2,   -0.3,   -0.3,   -0.3,   -0.4,   -0.3,   -0.3,   -0.4,   -0.4,   -0.4,   -0.3,   -0.2,   -0.2,   -0.0,    0.0,    0.1,    0.1,    0.0,   -0.1,   -0.1,   -0.1,    0.1,   -0.1,   -0.1,   -0.2,   -0.2,   -0.1,   -0.0,   -0.1,   -0.0,  999.0,  999.0,  999.0,  999.0,  999.0,  999.0,  999.0,  999.0,  999.0,  999.0,  999.0,  999.0,  999.0,  999.0,  999.0,  999.0,  999.0,  999.0,  999.0,  999.0,  999.0,  999.0,  999.0,  999.0,  999.0,  999.0,  999.0,  999.0,  999.0,  999.0,  999.0,  999.0,  999.0,  999.0,  999.0,  999.0,  999.0,  999.0,  999.0,  999.0,  999.0,  999.0,  999.0,  999.0,  999.0,  999.0,  999.0,  999.0,  999.0
2010/10/28 16:20,    0.0,   -0.0,   -0.1,   -0.0,   -0.1,   -0.0,   -0.1,   -0.1,   -0.0,   -0.0,   -0.1,   -0.1,    0.0,   -0.0,   -0.1,   -0.1,   -0.2,   -0.2,   -0.1,   -0.1,   -0.0,   -0.1,   -0.2,   -0.1,   -0.0,   -0.1,   -0.0,   -0.1,   -0.0,    0.0,    0.1,    0.0,    0.0,    0.0,   -0.0,    0.1,    0.2,    0.0,    0.1,    0.1,    0.1,    0.0,    0.0,   -0.2,   -0.2,   -0.0,    0.1,    0.2,    0.1,    0.3,  999.0,  999.0,  999.0,    0.2,  999.0,  999.0,    0.2,  999.0,  999.0,  999.0,  999.0,  999.0,  999.0,  999.0,  999.0,  999.0,  999.0,  999.0,  999.0,  999.0,  999.0,  999.0,  999.0,  999.0,  999.0,  999.0,  999.0,  999.0,  999.0,  999.0,  999.0,  999.0,  999.0,  999.0,  999.0,  999.0,  999.0,  999.0,  999.0,  999.0,  999.0,  999.0,  999.0,  999.0,  999.0,  999.0,  999.0,  999.0
2010/10/28 16:30,    0.0,   -0.1,   -0.0,   -0.1,   -0.0,    0.0,    0.0,    0.1,    0.1,    0.0,    0.1,    0.1,    0.1,    0.1,    0.0,    0.2,    0.1,    0.1,    0.1,    0.2,    0.1,    0.0,   -0.1,   -0.1,   -0.1,    0.0,   -0.0,    0.1,    0.1,    0.1,    0.1,    0.1,    0.0,    0.1,   -0.0,   -0.1,   -0.0,   -0.0,    0.1,    0.1,    0.1,  999.0,  999.0,   -0.0,    0.0,   -0.1,   -0.1,   -0.2,   -0.3,   -0.3,  999.0,  999.0,  999.0,    0.1,  999.0,  999.0,  999.0,  999.0,  999.0,  999.0,  999.0,  999.0,  999.0,  999.0,  999.0,  999.0,  999.0,  999.0,  999.0,  999.0,  999.0,  999.0,  999.0,  999.0,  999.0,  999.0,  999.0,  999.0,  999.0,  999.0,  999.0,  999.0,  999.0,  999.0,  999.0,  999.0,  999.0,  999.0,  999.0,  999.0,  999.0,  999.0,  999.0,  999.0,  999.0,  999.0,  999.0,  999.0
2010/10/28 16:40,   -0.0,   -0.1,   -0.1,   -0.1,   -0.1,    0.1,    0.2,    0.1,    0.1,    0.1,    0.1,    0.1,    0.0,    0.0,   -0.0,   -0.0,   -0.1,   -0.1,   -0.0,    0.0,    0.0,    0.1,    0.0,    0.1,    0.0,   -0.0,   -0.0,   -0.1,   -0.1,   -0.1,   -0.1,   -0.0,   -0.0,    0.1,   -0.0,   -0.0,   -0.0,   -0.1,   -0.2,   -0.2,  999.0,  999.0,  999.0,    0.0,    0.1,  999.0,  999.0,   -0.0,   -0.1,  999.0,  999.0,  999.0,  999.0,    0.3,  999.0,    0.0,  999.0,  999.0,  999.0,  999.0,  999.0,  999.0,  999.0,  999.0,  999.0,  999.0,  999.0,  999.0,  999.0,  999.0,  999.0,  999.0,  999.0,  999.0,  999.0,  999.0,  999.0,  999.0,  999.0,  999.0,  999.0,  999.0,  999.0,  999.0,  999.0,  999.0,  999.0,  999.0,  999.0,  999.0,  999.0,  999.0,  999.0,  999.0,  999.0,  999.0,  999.0,  999.0
2010/10/28 16:50,   -0.0,    0.0,    0.0,   -0.1,   -0.1,   -0.0,   -0.0,   -0.1,   -0.1,   -0.2,   -0.4,   -0.2,   -0.1,   -0.1,   -0.1,   -0.3,   -0.2,   -0.1,   -0.2,   -0.1,   -0.0,   -0.1,   -0.1,    0.0,   -0.1,    0.0,    0.0,   -0.1,   -0.1,    0.2,    0.1,   -0.1,    0.0,    0.0,   -0.1,   -0.1,   -0.0,   -0.2,   -0.2,   -0.1,   -0.0,  999.0,  999.0,   -0.0,  999.0,  999.0,  999.0,  999.0,  999.0,  999.0,  999.0,  999.0,  999.0,  999.0,  999.0,  999.0,    0.0,  999.0,  999.0,  999.0,  999.0,  999.0,  999.0,  999.0,  999.0,  999.0,  999.0,  999.0,  999.0,  999.0,  999.0,  999.0,  999.0,  999.0,  999.0,  999.0,  999.0,  999.0,  999.0,  999.0,  999.0,  999.0,  999.0,  999.0,  999.0,  999.0,  999.0,  999.0,  999.0,  999.0,  999.0,  999.0,  999.0,  999.0,  999.0,  999.0,  999.0,  999.0
2010/10/28 17:00,    0.0,   -0.0,   -0.1,   -0.1,   -0.1,   -0.2,   -0.2,   -0.1,    0.0,   -0.1,   -0.2,   -0.2,   -0.3,   -0.1,   -0.2,   -0.3,   -0.2,   -0.3,   -0.2,   -0.1,   -0.2,   -0.1,   -0.2,   -0.0,   -0.1,    0.0,    0.0,  999.0,   -0.1,   -0.2,   -0.4,    0.3,    0.3,   -0.1,    0.2,    0.3,    0.2,    0.1,    0.3,    0.1,    0.3,    0.3,    0.2,    0.3,  999.0,  999.0,  999.0,  999.0,    0.4,    0.2,  999.0,  999.0,    0.2,  999.0,  999.0,    0.0,   -0.1,  999.0,  999.0,  999.0,  999.0,  999.0,  999.0,  999.0,  999.0,  999.0,  999.0,  999.0,  999.0,  999.0,  999.0,  999.0,  999.0,  999.0,  999.0,  999.0,  999.0,  999.0,  999.0,  999.0,  999.0,  999.0,  999.0,   -0.0,  999.0,   -0.0,  999.0,  999.0,  999.0,  999.0,  999.0,  999.0,  999.0,  999.0,  999.0,  999.0,  999.0,  999.0
2010/10/28 17:10,    0.0,   -0.0,   -0.0,    0.1,    0.1,   -0.1,   -0.0,   -0.1,   -0.0,    0.0,    0.0,    0.1,   -0.0,   -0.0,    0.0,   -0.1,    0.0,   -0.6,   -0.8,   -1.0,   -0.8,   -0.9,   -0.8,   -0.6,   -0.5,   -0.5,   -0.8,   -0.7,   -0.5,   -0.4,   -0.5,   -0.4,   -0.3,    0.1,    0.0,    0.3,    0.0,   -0.0,   -0.1,   -0.3,    0.3,  999.0,   -0.0,    0.0,   -0.0,   -0.0,  999.0,  999.0,  999.0,  999.0,  999.0,  999.0,  999.0,  999.0,  999.0,  999.0,  999.0,  999.0,  999.0,  999.0,  999.0,  999.0,  999.0,  999.0,  999.0,  999.0,  999.0,  999.0,  999.0,  999.0,  999.0,  999.0,  999.0,  999.0,  999.0,  999.0,  999.0,  999.0,  999.0,  999.0,  999.0,  999.0,  999.0,  999.0,  999.0,  999.0,  999.0,  999.0,  999.0,  999.0,  999.0,  999.0,  999.0,  999.0,  999.0,  999.0,  999.0,  999.0
2010/10/28 17:20,   -0.0,   -0.0,   -0.1,   -0.0,    0.1,    0.1,    0.0,   -0.1,   -0.0,    0.0,    0.0,   -0.0,   -0.1,   -0.0,   -0.1,   -0.1,    0.1,   -0.3,   -0.3,   -0.1,   -0.3,   -0.1,   -0.2,   -0.2,   -0.3,   -0.5,   -0.6,   -0.6,   -0.7,   -0.5,   -0.4,   -0.3,   -0.1,   -0.0,    0.1,    0.1,    0.1,   -0.1,  999.0,  999.0,   -1.5,   -1.1,   -1.1,   -1.5,   -1.4,   -1.5,   -1.5,   -1.9,   -1.4,   -0.8,   -0.7,   -0.6,   -0.7,  999.0,  999.0,  999.0,  999.0,  999.0,  999.0,  999.0,  999.0,  999.0,  999.0,  999.0,  999.0,  999.0,  999.0,  999.0,  999.0,  999.0,  999.0,  999.0,  999.0,  999.0,  999.0,  999.0,  999.0,  999.0,  999.0,  999.0,  999.0,  999.0,  999.0,  999.0,  999.0,  999.0,  999.0,  999.0,  999.0,  999.0,  999.0,  999.0,  999.0,  999.0,  999.0,  999.0,  999.0,  999.0
2010/10/28 17:30,    0.0,   -0.1,   -0.1,   -0.1,   -0.0,   -0.1,   -0.1,   -0.1,   -0.1,   -0.1,   -0.1,   -0.1,   -0.0,   -0.0,    0.0,    0.0,   -0.0,    0.0,    0.0,    0.0,   -0.0,    0.0,    0.0,    0.0,    0.0,    0.1,   -0.0,    0.1,    0.0,   -0.0,   -0.0,   -0.1,   -0.3,   -0.2,   -0.1,   -0.0,   -0.0,   -0.2,   -0.3,   -0.4,  999.0,   -0.8,   -0.7,   -0.8,  999.0,   -0.6,   -0.6,   -0.5,   -0.4,   -0.3,   -0.0,   -0.2,  999.0,  999.0,  999.0,    0.2,  999.0,  999.0,  999.0,  999.0,  999.0,  999.0,  999.0,  999.0,  999.0,  999.0,  999.0,  999.0,  999.0,  999.0,  999.0,  999.0,  999.0,  999.0,  999.0,  999.0,  999.0,  999.0,  999.0,  999.0,  999.0,  999.0,  999.0,  999.0,  999.0,  999.0,  999.0,  999.0,  999.0,  999.0,  999.0,  999.0,  999.0,  999.0,  999.0,  999.0,  999.0,  999.0
2010/10/28 17:40,  999.0,  999.0,   -0.2,    0.2,    0.2,    0.2,    0.2,    0.0,    0.0,    0.0,   -0.1,   -0.1,   -0.1,   -0.0,    0.1,    0.3,  999.0,    0.6,    0.6,    0.5,    0.6,    0.6,    0.4,    0.4,    0.4,    0.4,    0.3,    0.4,    0.3,    0.2,    0.2,    0.2,    0.1,   -0.0,   -0.1,   -0.1,   -0.1,    0.0,   -0.0,   -0.0,   -0.1,    0.0,    0.1,    0.1,    0.2,    0.1,   -0.1,    0.1,   -0.3,   -0.1,  999.0,  999.0,  999.0,  999.0,  999.0,    0.2,  999.0,  999.0,  999.0,  999.0,  999.0,  999.0,  999.0,   -0.1,  999.0,  999.0,  999.0,  999.0,  999.0,  999.0,  999.0,  999.0,  999.0,  999.0,  999.0,  999.0,  999.0,  999.0,  999.0,  999.0,  999.0,  999.0,  999.0,  999.0,  999.0,  999.0,  999.0,  999.0,  999.0,  999.0,  999.0,  999.0,  999.0,  999.0,  999.0,  999.0,  999.0,  999.0
2010/10/28 17:50,  999.0,   -0.0,   -0.2,   -0.1,   -0.2,   -0.2,   -0.1,   -0.2,   -0.2,   -0.1,   -0.3,   -0.2,   -0.1,   -0.0,   -0.0,  999.0,  999.0,   -0.3,   -0.2,   -0.1,   -0.2,  999.0,  999.0,    0.1,  999.0,    0.4,    0.1,   -0.1,   -0.0,   -0.2,   -0.1,    0.1,   -0.0,  999.0,    0.1,   -0.1,   -0.2,   -0.0,    0.1,    0.1,    0.1,    0.2,    0.1,    0.1,   -0.2,  999.0,   -0.2,   -0.1,   -0.2,   -0.1,  999.0,  999.0,  999.0,  999.0,  999.0,  999.0,    0.2,  999.0,  999.0,  999.0,  999.0,  999.0,  999.0,  999.0,  999.0,  999.0,  999.0,  999.0,  999.0,  999.0,  999.0,  999.0,  999.0,  999.0,  999.0,  999.0,  999.0,  999.0,  999.0,  999.0,  999.0,  999.0,  999.0,  999.0,  999.0,  999.0,  999.0,  999.0,  999.0,  999.0,  999.0,  999.0,  999.0,  999.0,  999.0,   -0.7,   -0.7,  999.0
2010/10/28 18:00,  999.0,  999.0,    0.6,    0.7,   -0.1,   -0.2,   -0.0,    0.1,   -0.3,    0.3,    0.0,    0.1,   -0.3,    0.1,   -0.0,   -0.0,  999.0,    0.0,    0.2,    0.0,    0.1,    0.1,  999.0,  999.0,    0.1,  999.0,  999.0,   -0.8,   -0.9,   -0.9,   -0.6,   -0.4,   -0.3,   -0.2,   -0.1,   -0.3,   -0.4,   -0.2,   -0.1,    0.0,    0.1,    0.2,    0.2,    0.1,    0.1,  999.0,  999.0,    0.1,  999.0,  999.0,  999.0,  999.0,  999.0,  999.0,  999.0,  999.0,   -0.1,   -0.2,  999.0,  999.0,   -0.3,   -0.3,   -0.3,   -0.5,  999.0,  999.0,  999.0,  999.0,  999.0,  999.0,  999.0,  999.0,  999.0,  999.0,  999.0,  999.0,  999.0,  999.0,  999.0,  999.0,  999.0,  999.0,  999.0,  999.0,  999.0,  999.0,  999.0,  999.0,  999.0,  999.0,  999.0,  999.0,  999.0,   -0.7,   -0.8,   -0.7,   -0.6,  999.0
2010/10/28 18:10,    0.0,  999.0,   -0.1,  999.0,   -0.5,  999.0,   -0.3,   -0.0,  999.0,    0.4,    0.0,    0.1,   -0.0,   -0.0,    0.0,   -0.0,   -0.3,   -0.2,   -0.4,   -0.2,   -0.3,    0.0,    0.0,    0.1,  999.0,  999.0,  999.0,    0.2,    0.2,    0.1,    0.2,   -0.3,   -0.9,   -1.0,   -1.0,   -0.8,   -0.7,   -0.6,   -0.7,   -0.5,   -0.4,   -0.2,   -0.2,   -0.1,   -0.1,  999.0,  999.0,  999.0,   -0.7,   -0.8,   -0.7,   -0.7,   -0.8,   -0.8,   -0.5,   -0.3,   -0.2,  999.0,   -0.0,   -0.1,   -0.0,  999.0,  999.0,  999.0,  999.0,  999.0,  999.0,  999.0,  999.0,  999.0,  999.0,  999.0,  999.0,  999.0,  999.0,  999.0,  999.0,  999.0,  999.0,  999.0,  999.0,  999.0,  999.0,  999.0,  999.0,  999.0,  999.0,  999.0,  999.0,  999.0,  999.0,  999.0,   -0.6,   -0.8,   -0.8,   -0.9,   -1.1,   -0.9
2010/10/28 18:20,  999.0,  999.0,  999.0,    0.2,   -0.1,   -0.3,   -0.1,   -0.2,    0.1,   -0.2,   -0.1,   -0.1,   -0.2,   -0.2,   -0.1,   -0.3,   -0.0,    0.2,    0.1,   -0.1,   -0.1,  999.0,  999.0,  999.0,    0.1,  999.0,    0.0,  999.0,    0.0,    0.1,  999.0,    0.3,    0.3,   -0.0,  999.0,  999.0,   -0.2,   -0.5,   -0.1,   -0.1,    0.0,    0.1,    0.2,    0.1,    0.2,  999.0,  999.0,  999.0,   -0.8,   -0.7,   -0.7,   -0.7,   -0.6,   -0.4,  999.0,    0.0,   -0.1,    0.1,   -0.0,  999.0,  999.0,  999.0,  999.0,  999.0,  999.0,  999.0,  999.0,  999.0,  999.0,  999.0,  999.0,  999.0,  999.0,  999.0,  999.0,  999.0,  999.0,  999.0,  999.0,  999.0,  999.0,  999.0,  999.0,  999.0,  999.0,  999.0,  999.0,  999.0,   -1.1,   -1.0,   -1.1,   -1.1,   -1.1,   -1.1,   -1.0,   -0.9,   -0.8,   -0.7
2010/10/28 18:30,    0.3,  999.0,  999.0,    0.2,    0.1,    0.2,    0.1,    0.2,    0.1,    0.2,    0.3,    0.2,    0.2,    0.2,    0.1,    0.2,    0.1,    0.0,    0.0,    0.0,    0.0,   -0.0,  999.0,  999.0,   -0.0,    0.0,    0.3,  999.0,  999.0,  999.0,  999.0,  999.0,  999.0,  999.0,    0.3,  999.0,   -0.4,   -0.3,   -0.3,   -0.3,   -0.2,   -0.2,   -0.0,   -0.1,  999.0,  999.0,   -0.8,   -0.2,  999.0,   -0.1,   -0.4,  999.0,   -0.4,  999.0,  999.0,    0.1,    0.1,   -0.1,  999.0,  999.0,  999.0,  999.0,  999.0,  999.0,  999.0,  999.0,  999.0,  999.0,  999.0,  999.0,  999.0,  999.0,  999.0,  999.0,  999.0,  999.0,  999.0,  999.0,  999.0,  999.0,  999.0,   -0.8,   -0.8,   -0.8,   -0.7,   -0.7,   -0.7,   -0.8,   -0.8,   -0.8,   -0.8,   -0.8,   -0.8,   -0.8,   -0.8,   -0.8,   -0.7,   -0.7
2010/10/28 18:40,   -0.0,   -0.1,    0.0,   -0.0,   -0.1,   -0.1,   -0.0,    0.1,    0.0,    0.0,   -0.0,   -0.1,   -0.1,    0.1,    0.0,   -0.0,    0.1,    0.1,    0.0,    0.1,   -0.1,   -0.1,    0.0,   -0.1,   -0.1,   -0.1,    0.0,    0.2,   -0.1,    0.0,    0.1,  999.0,    0.2,    0.1,    0.2,   -0.3,   -0.6,   -0.6,   -0.6,  999.0,  999.0,   -1.2,   -0.8,   -0.3,   -0.3,   -0.3,  999.0,   -0.1,  999.0,   -0.1,  999.0,   -0.1,  999.0,   -0.2,  999.0,  999.0,  999.0,  999.0,  999.0,  999.0,  999.0,  999.0,  999.0,  999.0,  999.0,  999.0,  999.0,  999.0,  999.0,  999.0,  999.0,  999.0,  999.0,  999.0,  999.0,  999.0,  999.0,   -1.3,   -1.3,   -1.1,   -1.0,   -1.0,   -1.1,   -1.1,   -1.1,   -1.1,   -1.2,   -1.4,   -1.4,   -1.4,   -1.6,   -1.6,   -1.6,   -1.4,   -1.3,   -1.2,   -1.2,   -1.1
2010/10/28 18:50,    0.5,    0.1,  999.0,    0.0,    0.1,    0.1,    0.2,    0.0,    0.1,    0.1,    0.1,    0.1,    0.2,    0.2,    0.1,    0.1,    0.1,    0.0,    0.1,    0.1,   -0.0,    0.0,    0.0,  999.0,   -0.1,   -0.1,    0.0,    0.0,  999.0,  999.0,   -0.2,  999.0,  999.0,   -0.2,   -0.1,   -0.0,    0.1,   -0.2,    0.3,   -0.2,   -0.6,   -0.6,   -0.5,   -0.4,   -0.3,   -0.3,  999.0,   -0.0,   -0.1,  999.0,  999.0,  999.0,  999.0,  999.0,  999.0,    0.1,  999.0,  999.0,  999.0,  999.0,  999.0,  999.0,  999.0,  999.0,  999.0,  999.0,  999.0,  999.0,  999.0,  999.0,   -1.3,   -1.4,   -1.3,   -1.3,   -1.4,   -1.4,   -1.4,   -1.6,   -1.6,   -1.7,   -1.7,   -1.7,   -1.8,   -1.8,   -1.8,   -1.8,   -1.8,   -1.8,   -1.8,   -1.7,   -1.6,   -1.6,   -1.5,   -1.4,   -1.3,   -1.2,   -1.1,   -1.0
2010/10/28 19:00,    0.0,    0.2,    0.2,    0.0,    0.1,    0.2,    0.1,    0.3,    0.3,    0.2,    0.3,    0.1,    0.2,    0.2,    0.2,    0.1,    0.1,    0.1,   -0.0,    0.0,   -0.1,   -0.2,  999.0,  999.0,  999.0,  999.0,  999.0,  999.0,  999.0,    0.1,   -0.2,  999.0,  999.0,    0.0,  999.0,  999.0,  999.0,  999.0,  999.0,   -0.1,  999.0,   -0.0,    0.0,    0.0,   -0.0,  999.0,    0.1,  999.0,   -0.2,  999.0,  999.0,  999.0,  999.0,  999.0,  999.0,  999.0,  999.0,  999.0,  999.0,  999.0,  999.0,  999.0,   -1.6,   -1.6,   -1.5,   -1.5,   -1.4,   -1.3,   -1.3,   -1.3,   -1.3,   -1.3,   -1.3,   -1.3,   -1.3,   -1.4,   -1.4,   -1.5,   -1.5,   -1.5,   -1.5,   -1.5,   -1.5,   -1.5,   -1.4,   -1.5,   -1.5,   -1.5,   -1.5,   -1.4,   -1.4,   -1.4,   -1.3,   -1.2,   -1.1,   -1.0,   -0.9,   -0.9
2010/10/28 19:10,   -0.1,    0.2,    0.0,    0.1,    0.2,    0.0,   -0.0,   -0.0,   -0.1,   -0.0,   -0.0,   -0.0,   -0.1,   -0.2,   -0.1,   -0.1,   -0.1,   -0.1,   -0.1,   -0.1,   -0.1,   -0.3,   -0.4,   -0.3,  999.0,  999.0,  999.0,  999.0,  999.0,  999.0,  999.0,  999.0,  999.0,  999.0,  999.0,  999.0,  999.0,  999.0,  999.0,  999.0,  999.0,  999.0,   -0.0,  999.0,  999.0,  999.0,  999.0,  999.0,  999.0,  999.0,  999.0,  999.0,  999.0,  999.0,   -1.4,   -1.4,   -1.4,   -1.4,   -1.4,   -1.5,   -1.5,   -1.5,   -1.5,   -1.6,   -1.6,   -1.6,   -1.6,   -1.6,   -1.6,   -1.6,   -1.6,   -1.6,   -1.6,   -1.6,   -1.6,   -1.7,   -1.7,   -1.7,   -1.7,   -1.8,   -1.7,   -1.8,   -1.7,   -1.7,   -1.7,   -1.7,   -1.7,   -1.7,   -1.6,   -1.6,   -1.5,   -1.4,   -1.3,   -1.1,   -1.0,   -0.9,   -0.9,   -0.8
2010/10/28 19:20,    0.5,    0.1,    0.2,    0.0,   -0.1,    0.1,    0.1,   -0.1,    0.1,   -0.1,   -0.2,   -0.0,    0.0,   -0.1,   -0.0,   -0.1,   -0.1,   -0.2,   -0.0,   -0.2,   -0.3,  999.0,  999.0,  999.0,  999.0,  999.0,  999.0,  999.0,  999.0,  999.0,  999.0,  999.0,  999.0,  999.0,  999.0,  999.0,  999.0,  999.0,  999.0,  999.0,  999.0,  999.0,  999.0,  999.0,  999.0,  999.0,   -1.6,   -1.5,   -1.4,   -1.4,   -1.4,   -1.5,   -1.5,   -1.6,   -1.5,   -1.6,   -1.6,   -1.6,   -1.6,   -1.6,   -1.6,   -1.7,   -1.7,   -1.7,   -1.7,   -1.7,   -1.7,   -1.7,   -1.7,   -1.7,   -1.7,   -1.7,   -1.7,   -1.7,   -1.7,   -1.7,   -1.7,   -1.7,   -1.7,   -1.6,   -1.6,   -1.6,   -1.6,   -1.6,   -1.5,   -1.5,   -1.4,   -1.4,   -1.3,   -1.2,   -1.1,   -1.1,   -1.0,   -0.9,   -0.8,   -0.6,   -0.6,   -0.6
2010/10/28 19:30,   -0.0,    0.1,    0.1,    0.0,  999.0,    0.0,   -0.1,   -1.3,   -1.6,   -1.4,   -1.3,   -1.3,   -3.3,   -6.3,   -6.2,   -6.4,   -6.4,   -6.5,   -6.6,   -6.5,   -6.5,   -6.6,   -6.6,   -6.6,   -6.6,   -6.6,   -6.6,   -6.5,   -6.4,   -6.4,   -6.5,   -6.6,   -6.6,   -6.6,   -6.7,   -6.9,   -7.1,   -7.2,   -7.3,   -7.3,   -7.4,   -7.7,   -7.0,  999.0,  999.0,  999.0,  999.0,   -1.8,   -1.6,   -1.7,   -1.8,   -1.8,   -1.8,   -1.8,   -1.7,   -1.6,   -1.6,   -1.6,   -1.6,   -1.5,   -1.6,   -1.5,   -1.5,   -1.5,   -1.4,   -1.5,   -1.4,   -1.4,   -1.4,   -1.4,   -1.4,   -1.3,   -1.3,   -1.3,   -1.3,   -1.2,   -1.2,   -1.3,   -1.2,   -1.2,   -1.3,   -1.3,   -1.2,   -1.2,   -1.2,   -1.2,   -1.1,   -1.1,   -1.0,   -0.9,   -0.9,   -0.9,   -0.8,   -0.8,   -0.7,   -0.7,   -0.6,   -0.6
2010/10/28 19:40,   -6.2,   -6.3,   -6.4,   -6.4,   -6.4,   -6.4,   -6.4,   -6.3,   -6.4,   -6.2,   -6.3,   -6.3,   -6.3,   -6.4,   -6.4,   -6.3,   -6.4,   -6.6,   -7.0,   -7.4,   -7.4,   -7.3,   -7.3,   -7.3,   -7.3,   -7.3,   -7.3,   -7.3,   -7.3,   -7.3,   -7.4,   -7.5,   -7.5,   -7.6,   -7.6,   -7.7,   -7.7,   -7.8,   -7.8,   -7.9,   -7.9,   -7.9,   -7.1,  999.0,  999.0,  999.0,   -1.8,   -1.6,   -1.5,   -1.5,   -1.6,   -1.6,   -1.5,   -1.5,   -1.5,   -1.4,   -1.4,   -1.3,   -1.3,   -1.3,   -1.3,   -1.3,   -1.3,   -1.3,   -1.3,   -1.3,   -1.2,   -1.2,   -1.2,   -1.2,   -1.2,   -1.2,   -1.2,   -1.2,   -1.2,   -1.2,   -1.2,   -1.2,   -1.2,   -1.2,   -1.2,   -1.2,   -1.2,   -1.2,   -1.2,   -1.1,   -1.1,   -1.0,   -1.0,   -0.9,   -0.9,   -0.8,   -0.8,   -0.7,   -0.6,   -0.5,   -0.3,   -0.4
2010/10/28 19:50,  999.0,   -6.7,   -6.8,   -7.0,   -6.8,   -6.9,   -6.8,   -6.7,   -6.6,   -6.5,   -6.3,   -6.3,   -6.3,   -6.2,   -6.2,   -6.3,   -6.3,   -6.4,   -6.5,   -6.6,   -6.8,   -6.9,   -7.0,   -6.9,   -6.9,   -6.9,   -7.0,   -7.0,   -7.1,   -7.1,   -7.2,   -7.2,   -7.2,   -7.3,   -7.4,   -7.5,   -7.6,   -7.6,   -7.6,   -7.7,   -7.7,   -7.7,   -7.1,   -5.8,  999.0,  999.0,  999.0,   -1.6,   -1.5,   -1.5,   -1.4,   -1.4,   -1.5,   -1.5,   -1.5,   -1.5,   -1.5,   -1.5,   -1.5,   -1.4,   -1.4,   -1.3,   -1.3,   -1.3,   -1.3,   -1.2,   -1.1,   -1.2,   -1.2,   -1.2,   -1.1,   -1.2,   -1.1,   -1.1,   -1.1,   -1.1,   -1.1,   -1.1,   -1.0,   -1.0,   -1.0,   -1.0,   -1.0,   -1.0,   -1.0,   -0.9,   -0.9,   -0.9,   -0.8,   -0.8,   -0.9,   -0.8,   -0.8,   -0.6,   -0.6,   -0.5,   -0.5,   -0.6
2010/10/28 20:00,  999.0,  999.0,  999.0,  999.0,  999.0,  999.0,   -5.5,   -5.5,   -5.2,   -5.5,   -5.7,   -5.6,   -5.6,   -5.7,   -5.7,   -5.8,   -5.8,   -5.9,   -6.0,   -6.1,   -6.1,   -6.4,   -6.5,   -6.5,   -6.4,   -6.6,   -6.6,   -6.6,   -6.7,   -6.7,   -6.6,   -6.6,   -6.4,   -6.5,   -6.8,   -6.9,   -7.0,   -7.1,   -7.2,   -7.3,   -7.4,   -7.6,   -7.2,   -5.9,  999.0,  999.0,  999.0,   -1.6,   -1.4,   -1.4,   -1.3,   -1.4,   -1.3,   -1.3,   -1.2,   -1.2,   -1.2,   -1.2,   -1.2,   -1.1,   -1.1,   -1.1,   -1.0,   -1.0,   -1.1,   -1.1,   -1.0,   -1.1,   -1.2,   -1.2,   -1.2,   -1.2,   -1.1,   -1.1,   -1.1,   -1.0,   -1.0,   -1.0,   -1.0,   -1.0,   -1.0,   -1.0,   -1.0,   -1.0,   -1.0,   -1.0,   -1.0,   -0.9,   -0.9,   -0.8,   -0.7,   -0.6,   -0.6,   -0.6,   -0.6,   -0.5,   -0.5,   -0.5
2010/10/28 20:10,  999.0,  999.0,  999.0,   -5.0,   -3.7,   -5.1,   -5.4,   -5.6,   -5.7,   -5.8,   -5.8,   -5.7,   -5.8,   -5.7,   -5.7,   -5.7,   -5.7,   -5.7,   -5.6,   -5.7,   -5.7,   -5.7,   -5.6,   -5.6,   -5.6,   -5.6,   -5.9,   -5.9,   -6.0,   -6.1,   -6.4,   -6.0,   -6.1,   -6.2,   -6.1,   -6.2,   -6.3,   -6.4,   -6.3,   -6.2,   -6.0,   -6.0,   -5.7,   -5.9,  999.0,  999.0,  999.0,   -1.3,   -1.3,   -1.2,   -1.2,   -1.2,   -1.2,   -1.2,   -1.1,   -1.1,   -1.2,   -1.2,   -1.3,   -1.3,   -1.3,   -1.2,   -1.2,   -1.1,   -1.2,   -1.1,   -1.1,   -1.1,   -1.2,   -1.2,   -1.2,   -1.2,   -1.1,   -1.0,   -1.0,   -1.0,   -1.0,   -1.0,   -1.0,   -0.9,   -0.9,   -0.9,   -0.9,   -0.9,   -0.9,   -0.8,   -0.9,   -0.8,   -0.8,   -0.8,   -0.8,   -0.9,   -0.8,   -0.6,   -0.7,   -0.6,   -0.5,   -0.6
2010/10/28 20:20,  999.0,   -5.5,   -5.4,   -5.6,   -5.5,   -5.7,   -5.6,   -5.5,   -5.5,   -5.5,   -5.5,   -5.5,   -5.5,   -5.4,   -5.5,   -5.5,   -5.5,   -5.6,   -5.6,   -5.7,   -5.7,   -5.8,   -5.9,   -6.0,   -5.9,   -5.8,   -5.8,   -5.6,   -5.6,   -5.6,   -5.5,   -5.5,   -5.4,   -5.4,   -5.4,   -5.4,   -5.4,   -5.4,   -5.5,   -5.6,   -5.6,   -5.7,   -6.0,   -5.5,   -4.0,  999.0,  999.0,   -1.4,   -1.4,   -1.4,   -1.4,   -1.4,   -1.4,   -1.4,   -1.4,   -1.3,   -1.3,   -1.4,   -1.4,   -1.3,   -1.3,   -1.3,   -1.3,   -1.3,   -1.3,   -1.3,   -1.3,   -1.3,   -1.3,   -1.2,   -1.2,   -1.1,   -1.1,   -1.1,   -1.0,   -1.0,   -1.0,   -1.0,   -1.0,   -1.0,   -1.0,   -1.0,   -0.9,   -1.0,   -0.9,   -0.9,   -0.9,   -0.8,   -0.8,   -0.7,   -0.8,   -0.6,   -0.6,   -0.7,   -0.7,   -0.6,   -0.6,   -0.5
2010/10/28 20:30,  999.0,  999.0,   -5.2,   -5.3,   -5.4,   -5.4,   -5.4,   -5.4,   -5.4,   -5.4,   -5.5,   -5.5,   -5.5,   -5.5,   -5.4,   -5.4,   -5.4,   -5.4,   -5.5,   -5.6,   -5.6,   -5.6,   -5.6,   -5.7,   -5.7,   -5.6,   -5.6,   -5.5,   -5.8,   -5.7,   -5.7,   -5.7,   -5.6,   -5.6,   -5.6,   -5.6,   -5.7,   -5.8,   -5.8,   -5.8,   -5.8,   -5.8,   -5.9,   -5.3,   -3.8,  999.0,   -1.5,   -1.4,   -1.4,   -1.4,   -1.4,   -1.4,   -1.5,   -1.5,   -1.4,   -1.4,   -1.4,   -1.4,   -1.4,   -1.3,   -1.2,   -1.2,   -1.2,   -1.1,   -1.1,   -1.1,   -1.1,   -1.1,   -1.1,   -1.0,   -1.0,   -1.0,   -0.9,   -0.9,   -0.9,   -0.9,   -0.9,   -0.9,   -0.9,   -0.9,   -0.9,   -0.9,   -1.0,   -1.0,   -0.9,   -0.9,   -0.9,   -0.9,   -0.9,   -0.9,   -0.8,  999.0,  999.0,  999.0,  999.0,  999.0,  999.0,  999.0
2010/10/28 20:40,  999.0,   -4.5,   -4.6,   -4.6,   -4.7,   -4.6,   -4.7,   -4.7,   -4.8,   -4.9,   -4.9,   -4.9,   -5.0,   -4.9,   -5.0,   -5.0,   -5.0,   -5.1,   -5.1,   -5.0,   -5.0,   -5.1,   -5.0,   -5.1,   -5.0,   -5.1,   -5.1,   -5.2,   -5.1,   -5.0,   -5.0,   -5.0,   -4.9,   -5.0,   -5.0,   -5.1,   -5.1,   -5.2,   -5.3,   -5.3,   -5.4,   -5.5,   -5.5,   -4.7,  999.0,  999.0,   -1.6,   -1.5,   -1.5,   -1.5,   -1.5,   -1.4,   -1.4,   -1.4,   -1.4,   -1.3,   -1.3,   -1.3,   -1.3,   -1.3,   -1.2,   -1.2,   -1.2,   -1.1,   -1.1,   -1.1,   -1.2,   -1.2,   -1.1,   -1.0,   -1.0,   -1.0,   -1.0,   -1.0,   -1.0,   -1.0,   -0.9,   -1.0,   -1.0,   -0.9,   -1.0,   -1.0,   -1.0,   -1.0,   -0.9,   -1.0,   -1.0,   -1.0,   -0.9,   -0.9,   -0.9,   -0.8,   -0.7,   -0.7,   -0.6,   -0.6,   -0.6,  999.0
2010/10/28 20:50,  999.0,   -4.6,   -4.5,   -4.7,   -4.6,   -4.6,   -4.5,   -4.5,   -4.6,   -4.5,   -4.6,   -4.6,   -4.6,   -4.7,   -4.7,   -4.6,   -4.7,   -4.8,   -4.7,   -4.8,   -4.8,   -4.8,   -4.8,   -4.9,   -4.9,   -4.8,   -4.8,   -4.8,   -4.7,   -4.8,   -4.9,   -4.9,   -5.0,   -5.0,   -4.9,   -4.9,   -4.9,   -4.8,   -4.8,   -4.8,   -4.8,   -4.7,   -4.7,   -4.2,  999.0,  999.0,   -1.5,   -1.5,   -1.5,   -1.5,   -1.5,   -1.4,   -1.4,   -1.4,   -1.3,   -1.3,   -1.3,   -1.3,   -1.2,   -1.1,   -1.1,   -1.1,   -1.0,   -1.1,   -1.1,   -1.1,   -1.2,   -1.2,   -1.2,   -1.1,   -1.1,   -1.1,   -1.1,   -1.1,   -1.0,   -1.1,   -1.1,   -1.0,   -1.0,   -1.0,   -1.0,   -1.0,   -1.1,   -1.1,   -1.1,   -1.0,   -1.0,   -0.9,   -0.9,   -0.9,   -0.9,  999.0,   -0.9,  999.0,   -0.7,   -0.7,  999.0,  999.0
2010/10/28 21:00,   -4.1,   -4.2,   -4.2,   -4.1,   -4.2,   -4.0,   -4.0,   -4.0,   -4.0,   -4.0,   -4.0,   -3.9,   -3.9,   -3.9,   -3.9,   -3.9,   -3.9,   -3.9,   -3.8,   -3.9,   -3.9,   -3.8,   -3.8,   -3.8,   -3.9,   -3.9,   -4.0,   -4.1,   -4.1,   -4.2,   -4.1,   -4.0,   -4.0,   -4.0,   -4.0,   -4.0,   -4.0,   -4.1,   -4.0,   -3.9,   -3.9,   -3.9,   -4.0,   -3.7,  999.0,  999.0,   -1.4,   -1.4,   -1.3,   -1.3,   -1.2,   -1.2,   -1.2,   -1.2,   -1.2,   -1.2,   -1.2,   -1.2,   -1.1,   -1.1,   -1.1,   -1.0,   -1.0,   -1.0,   -1.0,   -1.0,   -0.9,   -1.0,   -1.0,   -1.1,   -1.1,   -1.1,   -1.1,   -1.1,   -1.0,   -1.0,   -1.0,   -1.1,   -1.1,   -1.1,   -1.1,   -1.1,   -1.1,   -1.0,   -1.0,   -1.0,   -0.9,   -0.9,   -0.8,   -1.0,   -0.9,   -0.9,   -1.0,  999.0,  999.0,  999.0,  999.0,  999.0
2010/10/28 21:10,  999.0,  999.0,  999.0,  999.0,   -2.7,   -2.8,   -2.9,   -2.9,   -3.0,   -3.0,   -3.1,   -3.2,   -3.3,   -3.4,   -3.4,   -3.5,   -3.6,   -3.6,   -3.6,   -3.5,   -3.4,   -3.4,   -3.2,   -3.1,   -3.1,   -3.0,   -3.0,   -3.1,   -3.1,   -3.3,   -3.4,   -3.4,   -3.4,   -3.3,   -3.3,   -3.3,   -3.4,   -3.4,   -3.3,   -3.2,   -3.2,   -3.0,   -3.0,   -3.0,   -2.1,   -1.5,   -1.3,   -1.3,   -1.3,   -1.2,   -1.3,   -1.2,   -1.2,   -1.1,   -1.1,   -1.1,   -1.2,   -1.1,   -1.1,   -1.0,   -1.0,   -1.0,   -1.0,   -1.1,   -1.1,   -1.1,   -1.1,   -1.0,   -1.0,   -0.9,   -0.8,   -0.9,   -1.0,   -1.1,   -1.2,   -1.2,   -1.3,   -1.2,   -1.2,   -1.2,   -1.1,   -1.1,   -1.1,   -1.1,   -0.8,   -0.9,  999.0,  999.0,  999.0,  999.0,  999.0,  999.0,  999.0,  999.0,  999.0,  999.0,  999.0,  999.0
2010/10/28 21:20,  999.0,  999.0,  999.0,   -2.1,   -2.4,   -2.3,   -2.4,   -2.4,   -2.2,   -2.2,   -2.4,   -2.5,   -2.7,   -2.8,   -2.9,   -2.9,   -2.9,   -3.0,   -3.1,   -3.1,   -3.1,   -3.0,   -2.9,   -2.9,   -2.9,   -3.0,   -2.9,   -2.9,   -2.8,   -2.8,   -2.8,   -2.8,   -2.7,   -2.7,   -2.7,   -2.7,   -2.7,   -2.6,   -2.6,   -2.6,   -2.5,   -2.5,   -2.6,   -2.8,   -2.3,   -1.6,   -1.1,   -1.1,   -1.1,   -1.0,   -1.0,   -1.0,   -1.1,   -1.1,   -1.2,   -1.3,   -1.2,   -1.1,   -1.1,   -1.0,   -1.1,   -1.1,   -1.0,   -1.0,   -1.1,   -1.1,   -1.0,   -0.9,   -0.9,   -0.8,   -0.7,   -0.6,   -0.7,   -0.8,   -0.9,   -1.1,   -1.2,   -1.1,   -1.1,   -1.1,   -1.1,   -1.1,   -1.1,   -1.1,   -1.1,   -1.1,   -1.0,   -1.0,   -0.9,   -1.0,   -1.0,  999.0,  999.0,  999.0,  999.0,  999.0,  999.0,  999.0
2010/10/28 21:30,  999.0,  999.0,    0.0,  999.0,   -0.0,    0.0,   -0.0,  999.0,   -1.1,   -1.2,   -0.7,   -0.6,   -0.5,   -0.6,   -0.6,   -0.6,  999.0,  999.0,  999.0,   -2.3,   -2.2,   -2.2,   -2.3,   -2.2,   -2.3,   -2.2,   -2.2,   -2.1,   -2.1,   -2.1,   -2.0,   -2.1,   -2.0,   -2.0,   -1.9,   -1.9,   -2.0,   -2.1,   -2.4,   -2.6,   -2.7,   -2.6,   -2.6,   -2.6,   -2.3,   -1.5,   -1.1,   -1.1,   -1.1,   -1.1,   -1.2,   -1.2,   -1.2,   -1.2,   -1.2,   -1.3,   -1.3,   -1.3,   -1.3,   -1.3,   -1.3,   -1.3,   -1.3,   -1.3,   -1.4,   -1.3,   -1.2,   -1.1,   -1.0,   -0.9,   -0.7,   -0.6,   -0.6,   -0.6,   -0.7,   -1.0,   -1.0,   -1.0,   -1.0,   -1.1,   -1.0,   -1.0,   -1.0,   -1.0,   -1.0,   -1.1,   -1.1,   -0.9,   -0.8,   -0.7,   -0.5,  999.0,  999.0,   -0.3,   -0.3,  999.0,  999.0,  999.0
2010/10/28 21:40,  999.0,  999.0,  999.0,    0.3,    0.0,    0.2,    0.0,   -0.1,   -0.2,   -0.4,    0.1,    0.1,   -0.0,   -0.1,   -0.0,   -0.1,   -0.1,    0.0,   -0.2,   -0.1,   -0.1,    0.0,   -0.2,  999.0,  999.0,   -1.7,   -1.8,   -1.9,   -2.3,   -2.1,   -2.1,   -2.1,   -2.2,   -2.2,   -2.1,   -2.4,   -2.8,  999.0,   -3.5,   -3.4,   -3.3,   -3.2,   -3.2,   -3.2,   -3.0,   -1.8,   -1.3,   -1.2,   -1.3,   -1.3,   -1.3,   -1.3,   -1.3,   -1.3,   -1.3,   -1.3,   -1.3,   -1.3,   -1.3,   -1.3,   -1.2,   -1.2,   -1.1,   -1.1,   -1.1,   -1.0,   -1.0,   -0.9,   -0.8,   -0.8,   -0.8,   -0.7,   -0.9,   -0.9,   -0.9,   -1.0,   -1.0,   -1.1,   -1.1,   -1.1,   -1.1,   -1.0,   -1.0,   -1.0,   -0.9,   -0.9,   -0.8,   -0.7,   -0.7,   -0.7,   -0.6,   -0.6,   -0.5,   -0.4,   -0.4,   -0.3,  999.0,  999.0
2010/10/28 21:50,  999.0,  999.0,  999.0,  999.0,  999.0,   -0.2,  999.0,   -0.2,   -0.1,   -0.0,    0.0,   -0.1,   -0.1,   -0.0,    0.0,   -0.0,   -0.0,   -0.0,    0.1,    0.2,    0.2,    0.2,  999.0,  999.0,  999.0,   -2.0,   -2.0,   -2.0,   -2.0,   -2.0,   -1.8,   -1.9,   -2.0,   -2.1,   -2.1,   -2.2,   -2.2,   -2.2,   -2.2,   -2.0,   -2.0,   -1.9,   -1.9,   -1.8,   -1.9,   -1.8,   -1.1,   -1.1,   -1.1,   -1.2,   -1.3,   -1.3,   -1.3,   -1.3,   -1.3,   -1.2,   -1.3,   -1.3,   -1.2,   -1.2,   -1.2,   -1.2,   -1.2,   -1.2,   -1.2,   -1.2,   -1.1,   -1.1,   -1.0,   -0.9,   -0.9,   -0.9,   -1.0,   -1.0,   -0.9,   -0.9,   -1.0,   -1.0,   -1.0,   -1.0,   -0.9,   -0.9,   -0.9,   -0.9,   -0.9,   -0.9,   -0.8,   -0.8,   -0.7,   -0.7,   -0.7,   -0.5,   -0.6,   -0.5,   -0.6,  999.0,  999.0,  999.0
2010/10/28 22:00,  999.0,  999.0,   -0.3,    0.2,  999.0,    0.0,    0.2,   -0.0,   -0.1,   -0.1,   -0.1,   -0.0,   -0.0,   -0.0,   -0.1,   -0.2,   -0.1,   -0.1,   -0.1,   -0.1,   -0.1,   -0.1,  999.0,   -0.0,  999.0,  999.0,  999.0,  999.0,  999.0,  999.0,  999.0,  999.0,  999.0,  999.0,  999.0,  999.0,  999.0,  999.0,  999.0,  999.0,  999.0,   -1.5,   -1.4,   -1.4,   -1.5,   -1.5,   -1.1,   -1.1,   -1.2,   -1.3,   -1.3,   -1.3,   -1.3,   -1.3,   -1.3,   -1.3,   -1.3,   -1.3,   -1.3,   -1.4,   -1.4,   -1.3,   -1.3,   -1.3,   -1.3,   -1.2,   -1.1,   -1.1,   -1.0,   -0.9,   -0.8,   -0.9,   -1.0,   -1.0,   -0.9,   -0.9,   -0.9,   -0.9,   -0.9,   -1.0,   -1.0,   -1.0,   -1.0,   -1.0,   -1.0,   -0.9,   -0.9,   -0.9,   -0.8,   -0.8,   -0.7,   -0.6,   -0.4,  999.0,  999.0,  999.0,  999.0,  999.0
2010/10/28 22:10,  999.0,  999.0,  999.0,  999.0,  999.0,  999.0,    0.0,   -0.1,   -0.2,    0.0,    0.2,    0.0,    0.0,   -0.0,   -0.0,   -0.0,   -0.0,   -0.1,   -0.1,   -0.1,   -0.0,    0.1,  999.0,  999.0,  999.0,  999.0,  999.0,  999.0,  999.0,  999.0,  999.0,  999.0,  999.0,  999.0,  999.0,  999.0,   -6.0,   -5.9,   -5.6,   -5.4,   -5.3,   -5.3,   -5.2,   -4.6,  999.0,  999.0,   -1.4,   -1.4,   -1.4,   -1.5,   -1.4,   -1.4,   -1.4,   -1.4,   -1.3,   -1.3,   -1.3,   -1.4,   -1.4,   -1.4,   -1.3,   -1.3,   -1.3,   -1.2,   -1.2,   -1.1,   -1.1,   -1.0,   -1.0,   -0.8,   -0.7,   -0.7,   -0.8,   -0.9,   -1.0,   -1.0,   -1.0,   -1.0,   -1.0,   -1.0,   -0.9,   -0.9,   -0.9,   -0.9,   -1.0,   -0.9,   -0.9,   -0.9,   -0.8,   -0.8,   -0.7,   -0.5,  999.0,  999.0,  999.0,  999.0,  999.0,  999.0
2010/10/28 22:20,  999.0,    0.5,  999.0,    0.1,    0.5,   -0.3,    0.2,   -0.0,   -0.1,    0.0,    0.1,    0.1,   -0.1,    0.1,   -0.2,    0.0,   -0.1,   -0.1,   -0.0,   -0.0,   -0.1,  999.0,  999.0,  999.0,  999.0,  999.0,  999.0,  999.0,  999.0,  999.0,  999.0,  999.0,  999.0,  999.0,  999.0,   -2.4,   -2.5,   -2.5,  999.0,   -3.3,   -3.7,   -3.9,   -4.2,   -3.9,   -2.3,   -1.5,   -1.4,   -1.5,   -1.5,   -1.5,   -1.4,   -1.4,   -1.4,   -1.3,   -1.3,   -1.3,   -1.2,   -1.3,   -1.3,   -1.3,   -1.3,   -1.3,   -1.2,   -1.2,   -1.2,   -1.2,   -1.1,   -1.1,   -1.0,   -0.9,   -0.8,   -0.7,   -0.7,   -0.8,   -0.9,   -0.9,   -0.9,   -0.9,   -1.0,   -1.0,   -0.9,   -0.9,   -0.9,   -0.9,   -0.9,   -0.8,   -0.7,  999.0,  999.0,  999.0,  999.0,  999.0,  999.0,  999.0,  999.0,  999.0,  999.0,  999.0
2010/10/28 22:30,    0.0,    0.1,   -0.2,   -0.3,   -0.2,   -0.1,   -0.1,   -0.2,   -0.1,   -0.1,   -0.1,   -0.2,   -0.2,   -0.2,   -0.1,   -0.0,   -0.2,   -0.0,    0.0,  999.0,  999.0,  999.0,  999.0,   -2.9,  999.0,   -2.7,   -2.8,   -2.8,   -2.7,   -2.7,   -2.8,   -2.7,   -2.7,   -2.8,   -2.9,   -3.1,   -3.4,   -3.5,   -3.6,   -3.4,   -4.0,   -3.8,   -4.0,  999.0,   -1.9,   -1.6,   -1.6,   -1.5,   -1.5,   -1.4,   -1.4,   -1.3,   -1.4,   -1.3,   -1.3,   -1.3,   -1.3,   -1.3,   -1.4,   -1.4,   -1.4,   -1.3,   -1.3,   -1.3,   -1.2,   -1.2,   -1.1,   -1.1,   -1.0,   -0.9,   -0.8,   -0.7,   -0.7,   -0.8,   -0.8,   -0.9,   -0.9,   -0.9,   -0.9,   -0.9,   -0.9,   -0.9,   -0.8,  999.0,  999.0,  999.0,  999.0,  999.0,  999.0,  999.0,  999.0,  999.0,  999.0,  999.0,  999.0,  999.0,  999.0,  999.0
2010/10/28 22:40,  999.0,    0.1,   -0.0,    0.0,   -0.1,    0.0,    0.0,   -0.2,   -0.1,   -0.1,   -0.2,   -0.2,   -0.2,   -0.6,  999.0,  999.0,  999.0,  999.0,  999.0,   -4.6,   -4.6,   -4.5,   -4.5,   -4.5,   -4.4,   -4.5,   -4.4,   -4.4,   -3.9,   -3.9,   -3.7,   -3.7,   -3.8,   -3.8,   -4.0,   -3.8,   -4.0,   -4.0,   -4.3,   -5.1,   -5.0,   -4.7,  999.0,   -3.0,   -2.1,   -1.6,   -1.6,   -1.6,   -1.6,   -1.5,   -1.4,   -1.4,   -1.4,   -1.3,   -1.3,   -1.3,   -1.3,   -1.4,   -1.4,   -1.4,   -1.3,   -1.3,   -1.2,   -1.2,   -1.1,   -1.1,   -1.1,   -1.0,   -1.0,   -0.9,   -0.8,   -0.7,   -0.8,   -0.8,   -0.9,   -0.9,   -0.9,   -0.9,   -0.9,  999.0,  999.0,  999.0,  999.0,  999.0,  999.0,  999.0,  999.0,   -0.9,   -0.9,   -0.9,  999.0,  999.0,  999.0,  999.0,  999.0,  999.0,  999.0,  999.0
2010/10/28 22:50,    0.1,  999.0,    0.4,  999.0,   -0.0,   -0.0,   -0.0,    0.2,    0.3,    0.2,  999.0,   -3.9,   -3.5,   -4.9,   -5.3,   -4.9,   -4.8,   -4.7,   -4.7,   -4.6,   -4.6,   -4.6,   -4.5,   -4.5,   -4.5,   -4.4,   -4.3,   -4.3,   -4.1,   -4.1,   -4.1,   -4.1,   -4.0,  999.0,   -4.4,   -4.9,   -5.1,   -5.1,   -5.2,   -5.2,   -5.1,   -5.4,  999.0,   -3.2,  999.0,   -1.7,   -1.6,   -1.5,   -1.5,   -1.4,   -1.3,   -1.3,   -1.2,   -1.2,   -1.2,   -1.2,   -1.2,   -1.2,   -1.2,   -1.2,   -1.2,   -1.2,   -1.2,   -1.2,   -1.2,   -1.2,   -1.1,   -1.1,   -1.0,   -0.9,   -0.7,   -0.6,   -0.6,   -0.7,   -0.7,   -0.7,  999.0,  999.0,   -0.9,   -0.9,   -0.9,   -1.0,   -1.0,   -1.0,   -1.0,   -0.9,   -0.9,   -0.9,   -0.9,  999.0,  999.0,  999.0,  999.0,  999.0,  999.0,  999.0,  999.0,  999.0
2010/10/28 23:00,    0.0,   -0.3,    0.4,  999.0,  999.0,   -0.1,    0.0,   -0.0,    0.0,  999.0,  999.0,   -0.0,  999.0,  999.0,   -2.0,   -3.4,   -4.3,   -4.4,   -4.8,   -5.3,   -5.5,   -5.2,   -5.1,   -4.8,   -5.0,   -4.7,   -4.7,   -4.8,   -4.9,   -5.0,   -5.0,   -5.0,   -5.0,   -5.1,   -5.0,   -4.9,   -4.8,   -4.8,   -4.8,   -4.8,   -4.6,   -4.7,  999.0,   -3.1,  999.0,  999.0,   -1.6,   -1.5,   -1.4,   -1.4,   -1.3,   -1.3,   -1.2,   -1.2,   -1.1,   -1.1,   -1.2,   -1.2,   -1.2,   -1.1,   -1.1,   -1.1,   -1.1,   -1.1,   -1.1,   -1.1,   -1.0,   -0.9,   -0.9,   -0.8,   -0.6,   -0.6,   -0.7,   -0.8,   -0.9,   -0.9,   -0.9,   -0.9,   -0.9,   -0.9,   -0.9,   -0.9,   -0.9,   -0.9,   -0.9,   -0.8,  999.0,  999.0,  999.0,  999.0,  999.0,  999.0,  999.0,  999.0,  999.0,  999.0,  999.0,  999.0
2010/10/28 23:10,   -0.1,   -0.1,   -0.0,  999.0,   -0.0,    0.0,   -0.0,    0.1,    0.0,    0.1,    0.1,    0.1,    0.1,    0.1,    0.2,  999.0,    0.1,  999.0,   -0.6,  999.0,  999.0,   -2.2,   -2.4,   -2.8,   -2.9,   -3.8,   -4.1,   -4.5,   -4.5,   -4.6,   -4.6,   -4.5,   -4.4,   -4.3,   -4.3,   -4.3,   -4.2,   -4.3,   -4.3,   -4.3,   -4.3,   -4.5,   -4.4,   -3.3,   -2.2,   -1.6,   -1.4,   -1.4,   -1.4,   -1.3,   -1.2,   -1.2,   -1.2,   -1.1,   -1.1,   -1.1,   -1.1,   -1.1,   -1.2,   -1.1,   -1.1,   -1.0,   -1.0,   -1.0,   -1.0,   -1.0,   -0.9,   -0.9,   -0.8,   -0.8,   -0.8,   -0.8,   -0.8,   -0.7,   -0.7,   -0.8,   -0.9,   -0.8,   -0.7,   -0.7,   -0.8,   -0.8,   -0.8,   -0.9,   -0.6,  999.0,  999.0,  999.0,  999.0,  999.0,  999.0,  999.0,  999.0,   -0.9,   -0.9,  999.0,  999.0,  999.0
2010/10/28 23:20,   -0.1,    0.0,  999.0,  999.0,   -0.1,    0.0,    0.1,    0.0,   -0.1,    0.0,   -0.0,    0.0,   -0.1,  999.0,   -0.1,  999.0,   -0.2,   -0.1,   -0.1,   -0.0,  999.0,  999.0,  999.0,   -2.3,   -4.3,   -4.9,   -4.9,   -4.6,   -4.6,   -4.6,   -4.6,   -4.6,   -4.5,   -4.5,   -4.3,   -4.1,   -4.0,   -4.0,   -3.7,   -3.6,   -3.5,   -3.6,   -3.5,   -3.4,  999.0,  999.0,   -1.4,   -1.3,   -1.3,   -1.2,   -1.2,   -1.1,   -1.1,   -1.1,   -1.0,   -1.0,   -1.0,   -1.0,   -1.0,   -1.0,   -1.0,   -1.0,   -0.9,   -1.0,   -1.0,   -1.0,   -0.9,   -0.9,   -0.9,   -0.9,   -0.9,   -0.9,   -0.9,   -0.9,   -0.8,   -0.9,   -1.0,   -1.0,   -1.0,   -1.0,  999.0,   -0.9,  999.0,  999.0,  999.0,  999.0,  999.0,  999.0,  999.0,  999.0,  999.0,  999.0,  999.0,  999.0,  999.0,  999.0,  999.0,  999.0
2010/10/28 23:30,    0.0,   -0.5,   -0.3,   -0.3,   -0.5,   -0.3,   -0.3,   -0.2,   -0.0,   -0.1,   -0.1,   -0.3,   -0.6,   -0.3,   -1.4,   -1.3,   -1.3,   -1.6,   -1.2,   -1.0,   -1.0,   -0.9,  999.0,  999.0,  999.0,  999.0,   -3.5,  999.0,  999.0,   -3.4,   -3.4,   -3.3,   -3.3,   -3.2,   -3.1,   -3.1,   -3.1,   -3.0,   -2.9,   -2.8,   -2.7,   -2.7,   -2.6,   -2.7,   -2.1,  999.0,   -1.2,   -1.2,   -1.2,   -1.1,   -1.0,   -1.1,   -1.1,   -1.1,   -1.1,   -1.1,   -1.1,   -1.2,   -1.1,   -1.1,   -1.1,   -1.1,   -1.0,   -1.1,   -1.1,   -1.1,   -1.0,   -1.1,   -1.0,   -1.0,   -1.0,   -1.0,   -1.0,   -0.9,   -0.9,   -1.1,   -1.0,   -0.9,   -1.0,  999.0,  999.0,  999.0,  999.0,  999.0,  999.0,  999.0,  999.0,  999.0,  999.0,  999.0,  999.0,  999.0,   -1.0,  999.0,  999.0,  999.0,  999.0,  999.0
2010/10/28 23:40,  999.0,   -3.0,   -2.5,   -2.9,   -2.0,   -2.6,   -2.3,   -3.1,   -3.0,   -2.4,   -2.9,   -2.8,   -2.8,   -2.5,   -2.9,   -2.8,   -2.8,   -2.8,   -2.9,   -2.8,   -2.8,   -2.7,   -2.7,   -2.6,   -2.8,   -2.5,   -2.5,   -2.4,   -2.4,   -2.3,   -2.3,   -2.3,   -2.3,   -2.3,   -2.5,   -2.6,   -2.6,   -2.6,   -2.5,   -2.5,   -2.5,   -2.5,   -2.5,   -2.6,   -1.9,  999.0,   -1.2,   -1.2,   -1.2,   -1.2,   -1.3,   -1.2,   -1.2,   -1.3,   -1.2,   -1.2,   -1.2,   -1.2,   -1.2,   -1.2,   -1.2,   -1.2,   -1.2,   -1.2,   -1.2,   -1.2,   -1.2,   -1.1,   -1.1,   -1.2,   -1.2,   -1.1,   -1.1,   -1.2,   -1.2,   -1.3,   -1.2,   -1.2,   -1.1,   -1.3,   -1.2,   -1.1,   -1.1,  999.0,  999.0,  999.0,  999.0,  999.0,  999.0,  999.0,  999.0,  999.0,  999.0,  999.0,  999.0,  999.0,  999.0,  999.0
2010/10/28 23:50,  999.0,   -2.7,   -2.8,   -2.8,   -2.8,   -2.8,   -2.7,   -2.7,   -2.8,   -2.8,   -2.8,   -2.7,   -2.6,   -2.6,   -2.5,   -2.5,   -2.3,   -2.3,   -2.2,   -2.2,   -2.3,   -2.3,   -2.3,   -2.3,   -2.3,   -2.2,   -2.3,   -2.3,   -2.3,   -2.2,   -2.3,   -2.3,   -2.3,   -2.3,   -2.3,   -2.4,   -2.5,   -2.4,   -2.4,   -2.4,   -2.4,   -2.3,   -2.4,   -2.8,   -1.9,   -1.4,   -1.1,   -1.1,   -1.2,   -1.2,   -1.2,   -1.2,   -1.2,   -1.2,   -1.1,   -1.1,   -1.1,   -1.2,   -1.2,   -1.3,   -1.3,   -1.2,   -1.3,   -1.2,   -1.2,   -1.2,   -1.1,   -1.1,   -1.1,   -1.1,   -1.1,   -1.1,   -1.1,   -1.1,   -1.2,   -1.1,   -1.1,   -0.9,  999.0,  999.0,  999.0,  999.0,  999.0,  999.0,  999.0,  999.0,  999.0,  999.0,  999.0,  999.0,  999.0,  999.0,  999.0,  999.0,  999.0,  999.0,  999.0,  999.0
